Time,TemperatureF,DewpointF,PressureIn,WindDirection,WindDirectionDegrees,WindSpeedMPH,WindSpeedGustMPH,Humidity,HourlyPrecipIn,Conditions,Clouds,dailyrainin,SoftwareType,DateUTC
2013-03-10 00:00:00,55.1,31.8,30.03,SE,142,6.3,9.2,41,0.00,,,0.00,WUHU216HW,2013-03-10 05:00:00,
2013-03-10 00:02:00,55.1,31.8,30.03,SE,135,7.4,9.2,41,0.00,,,0.00,WUHU216HW,2013-03-10 05:02:00,
2013-03-10 00:05:00,55.1,31.8,30.03,SE,135,9.2,9.2,41,0.00,,,0.00,WUHU216HW,2013-03-10 05:05:00,
2013-03-10 00:06:00,55.1,31.8,30.03,SSE,157,8.9,9.2,41,0.00,,,0.00,WUHU216HW,2013-03-10 05:06:00,
2013-03-10 00:07:00,55.1,31.8,30.03,SE,135,8.7,9.2,41,0.00,,,0.00,WUHU216HW,2013-03-10 05:07:00,
2013-03-10 00:10:00,55.1,31.8,30.03,SSE,158,6.6,10.5,41,0.00,,,0.00,WUHU216HW,2013-03-10 05:10:00,
2013-03-10 00:11:00,55.1,31.8,30.03,SSE,158,6.6,10.5,41,0.00,,,0.00,WUHU216HW,2013-03-10 05:11:00,
2013-03-10 00:12:00,55.1,31.8,30.03,SE,135,5.6,10.5,41,0.00,,,0.00,WUHU216HW,2013-03-10 05:12:00,
2013-03-10 00:15:00,55.1,31.8,30.03,SSE,150,7.4,10.5,41,0.00,,,0.00,WUHU216HW,2013-03-10 05:15:00,
2013-03-10 00:16:00,55.1,31.8,30.03,SSE,150,7.4,10.5,41,0.00,,,0.00,WUHU216HW,2013-03-10 05:16:00,
2013-03-10 00:17:00,55.1,31.8,30.03,SSW,203,8.5,10.5,41,0.00,,,0.00,WUHU216HW,2013-03-10 05:17:00,
2013-03-10 00:18:00,55.1,31.8,30.03,South,170,8.1,10.5,41,0.00,,,0.00,WUHU216HW,2013-03-10 05:18:00,
2013-03-10 00:21:00,55.1,31.8,30.02,SSE,153,9.8,11.4,41,0.00,,,0.00,WUHU216HW,2013-03-10 05:21:00,
2013-03-10 00:23:00,55.1,31.8,30.02,ESE,113,9.8,11.4,41,0.00,,,0.00,WUHU216HW,2013-03-10 05:23:00,
2013-03-10 00:26:00,55.1,31.8,30.02,SSE,158,8.6,11.4,41,0.00,,,0.00,WUHU216HW,2013-03-10 05:26:00,
2013-03-10 00:27:00,55.1,31.8,30.02,SSE,158,11.0,11.4,41,0.00,,,0.00,WUHU216HW,2013-03-10 05:27:00,
2013-03-10 00:29:00,55.1,31.8,30.02,ESE,113,7.4,11.4,41,0.00,,,0.00,WUHU216HW,2013-03-10 05:29:00,
2013-03-10 00:31:00,55.1,31.8,30.02,SSE,161,8.9,11.0,41,0.00,,,0.00,WUHU216HW,2013-03-10 05:31:00,
2013-03-10 00:33:00,55.1,31.8,30.02,SE,135,11.4,11.4,41,0.00,,,0.00,WUHU216HW,2013-03-10 05:33:00,
2013-03-10 00:34:00,55.1,31.8,30.02,SE,135,9.9,11.4,41,0.00,,,0.00,WUHU216HW,2013-03-10 05:34:00,
2013-03-10 00:36:00,55.1,31.8,30.02,South,170,9.1,11.4,41,0.00,,,0.00,WUHU216HW,2013-03-10 05:36:00,
2013-03-10 00:37:00,55.1,31.8,30.02,SSE,148,7.1,11.4,41,0.00,,,0.00,WUHU216HW,2013-03-10 05:37:00,
2013-03-10 00:39:00,55.1,31.8,30.02,SE,135,15.4,15.4,41,0.00,,,0.00,WUHU216HW,2013-03-10 05:39:00,
2013-03-10 00:40:00,55.1,31.8,30.02,SE,146,14.9,15.4,41,0.00,,,0.00,WUHU216HW,2013-03-10 05:40:00,
2013-03-10 00:43:00,55.1,31.8,30.02,South,180,9.6,15.4,41,0.00,,,0.00,WUHU216HW,2013-03-10 05:43:00,
2013-03-10 00:44:00,55.1,31.8,30.01,SSW,203,10.7,15.4,41,0.00,,,0.00,WUHU216HW,2013-03-10 05:44:00,
2013-03-10 00:46:00,55.1,31.8,30.01,East,90,12.5,15.4,41,0.00,,,0.00,WUHU216HW,2013-03-10 05:46:00,
2013-03-10 00:48:00,55.1,31.8,30.01,South,181,7.2,15.4,41,0.00,,,0.00,WUHU216HW,2013-03-10 05:48:00,
2013-03-10 00:50:00,55.1,31.8,30.01,SE,135,8.0,12.5,41,0.00,,,0.00,WUHU216HW,2013-03-10 05:50:00,
2013-03-10 00:52:00,55.1,31.8,30.01,ESE,117,10.8,13.0,41,0.00,,,0.00,WUHU216HW,2013-03-10 05:52:00,
2013-03-10 00:54:00,55.1,31.8,30.01,ESE,121,6.9,13.0,41,0.00,,,0.00,WUHU216HW,2013-03-10 05:54:00,
2013-03-10 00:55:00,55.1,31.8,30.01,SE,135,8.9,13.0,41,0.00,,,0.00,WUHU216HW,2013-03-10 05:55:00,
2013-03-10 00:58:00,55.1,31.8,30.01,SSE,158,9.2,13.0,41,0.00,,,0.00,WUHU216HW,2013-03-10 05:58:00,
2013-03-10 00:59:00,55.1,31.8,30.01,SSE,148,8.1,13.0,41,0.00,,,0.00,WUHU216HW,2013-03-10 05:59:00,
2013-03-10 01:00:00,55.1,31.8,30.01,SSE,159,7.5,13.0,41,0.00,,,0.00,WUHU216HW,2013-03-10 06:00:00,
2013-03-10 01:01:00,55.1,31.8,30.01,SSE,159,7.5,13.0,41,0.00,,,0.00,WUHU216HW,2013-03-10 06:01:00,
2013-03-10 01:03:00,55.1,31.8,30.01,SSE,158,9.2,11.4,41,0.00,,,0.00,WUHU216HW,2013-03-10 06:03:00,
2013-03-10 01:04:00,55.1,31.8,30.01,SSE,158,6.4,11.4,41,0.00,,,0.00,WUHU216HW,2013-03-10 06:04:00,
2013-03-10 01:06:00,55.1,31.8,30.01,SE,135,12.3,12.3,41,0.00,,,0.00,WUHU216HW,2013-03-10 06:06:00,
2013-03-10 01:07:00,55.1,31.8,30.01,SE,145,11.3,12.3,41,0.00,,,0.00,WUHU216HW,2013-03-10 06:07:00,
2013-03-10 01:08:00,55.1,31.8,30.01,SE,135,10.5,12.3,41,0.00,,,0.00,WUHU216HW,2013-03-10 06:08:00,
2013-03-10 01:10:00,55.1,31.8,30.01,SSE,158,10.7,12.3,41,0.00,,,0.00,WUHU216HW,2013-03-10 06:10:00,
2013-03-10 01:11:00,55.1,31.8,30.01,SSE,149,8.6,12.3,41,0.00,,,0.00,WUHU216HW,2013-03-10 06:11:00,
2013-03-10 01:12:00,55.1,31.8,30.01,SE,135,9.4,12.3,41,0.00,,,0.00,WUHU216HW,2013-03-10 06:12:00,
2013-03-10 01:14:00,55.1,31.8,30.01,SE,124,5.7,12.3,41,0.00,,,0.00,WUHU216HW,2013-03-10 06:14:00,
2013-03-10 01:16:00,55.1,31.8,30.01,South,180,12.1,12.1,41,0.00,,,0.00,WUHU216HW,2013-03-10 06:16:00,
2013-03-10 01:17:00,55.1,31.8,30.01,South,180,12.1,12.1,41,0.00,,,0.00,WUHU216HW,2013-03-10 06:17:00,
2013-03-10 01:18:00,54.9,31.6,30.01,SSE,166,9.0,12.1,41,0.00,,,0.00,WUHU216HW,2013-03-10 06:18:00,
2013-03-10 01:20:00,54.9,32.1,30.01,SE,135,8.7,12.1,42,0.00,,,0.00,WUHU216HW,2013-03-10 06:20:00,
2013-03-10 01:22:00,54.7,32.0,30.01,SE,135,10.3,12.1,42,0.00,,,0.00,WUHU216HW,2013-03-10 06:22:00,
2013-03-10 01:23:00,54.7,31.4,30.01,SE,135,8.9,12.1,41,0.00,,,0.00,WUHU216HW,2013-03-10 06:23:00,
2013-03-10 01:25:00,54.7,32.0,30.01,SE,135,8.7,12.1,42,0.00,,,0.00,WUHU216HW,2013-03-10 06:25:00,
2013-03-10 01:27:00,54.7,32.0,30.01,SSE,158,11.6,11.6,42,0.00,,,0.00,WUHU216HW,2013-03-10 06:27:00,
2013-03-10 01:28:00,54.7,31.4,30.01,SSE,158,4.7,11.6,41,0.00,,,0.00,WUHU216HW,2013-03-10 06:28:00,
2013-03-10 01:29:00,54.7,31.4,30.01,SE,135,5.6,11.6,41,0.00,,,0.00,WUHU216HW,2013-03-10 06:29:00,
2013-03-10 01:30:00,54.7,31.4,30.01,SE,135,5.6,11.6,41,0.00,,,0.00,WUHU216HW,2013-03-10 06:30:00,
2013-03-10 01:32:00,54.7,32.0,30.01,ESE,123,7.1,11.6,42,0.00,,,0.00,WUHU216HW,2013-03-10 06:32:00,
2013-03-10 01:34:00,54.7,31.4,30.01,SE,135,8.5,11.6,41,0.00,,,0.00,WUHU216HW,2013-03-10 06:34:00,
2013-03-10 01:36:00,54.7,31.4,30.01,SSE,160,6.9,11.6,41,0.00,,,0.00,WUHU216HW,2013-03-10 06:36:00,
2013-03-10 01:38:00,54.7,31.4,30.01,SE,135,8.1,9.8,41,0.00,,,0.00,WUHU216HW,2013-03-10 06:38:00,
2013-03-10 01:39:00,54.7,32.0,30.01,ESE,113,8.5,9.8,42,0.00,,,0.00,WUHU216HW,2013-03-10 06:39:00,
2013-03-10 01:40:00,54.7,32.0,30.01,ESE,113,8.5,9.8,42,0.00,,,0.00,WUHU216HW,2013-03-10 06:40:00,
2013-03-10 01:41:00,54.7,31.4,30.01,ESE,102,8.4,9.8,41,0.00,,,0.00,WUHU216HW,2013-03-10 06:41:00,
2013-03-10 01:44:00,54.7,32.0,30.01,ESE,107,7.9,9.8,42,0.00,,,0.00,WUHU216HW,2013-03-10 06:44:00,
2013-03-10 01:45:00,54.7,32.0,30.01,South,180,10.7,10.7,42,0.00,,,0.00,WUHU216HW,2013-03-10 06:45:00,
2013-03-10 01:46:00,54.7,31.4,30.01,SSE,156,8.5,10.7,41,0.00,,,0.00,WUHU216HW,2013-03-10 06:46:00,
2013-03-10 01:47:00,54.7,32.0,30.01,SSE,158,6.9,10.7,42,0.00,,,0.00,WUHU216HW,2013-03-10 06:47:00,
2013-03-10 01:50:00,54.7,32.0,30.02,SSE,147,9.5,10.7,42,0.00,,,0.00,WUHU216HW,2013-03-10 06:50:00,
2013-03-10 01:52:00,54.7,32.0,30.02,SSE,158,10.7,10.7,42,0.00,,,0.00,WUHU216HW,2013-03-10 06:52:00,
2013-03-10 01:56:00,54.5,31.8,30.01,SE,135,5.8,10.7,42,0.00,,,0.00,WUHU216HW,2013-03-10 06:56:00,
2013-03-10 01:58:00,54.4,31.7,30.01,South,180,3.4,10.7,42,0.00,,,0.00,WUHU216HW,2013-03-10 06:58:00,
2013-03-10 03:01:00,54.4,31.7,30.01,South,175,5.8,10.7,42,0.00,,,0.00,WUHU216HW,2013-03-10 07:01:00,
2013-03-10 03:03:00,54.4,31.7,30.00,South,170,6.9,7.6,42,0.00,,,0.00,WUHU216HW,2013-03-10 07:03:00,
2013-03-10 03:05:00,54.4,31.7,30.01,ESE,113,6.5,7.6,42,0.00,,,0.00,WUHU216HW,2013-03-10 07:05:00,
2013-03-10 03:07:00,54.4,31.7,30.01,ESE,113,14.1,14.1,42,0.00,,,0.00,WUHU216HW,2013-03-10 07:07:00,
2013-03-10 03:08:00,54.5,31.8,30.00,SE,130,11.8,14.1,42,0.00,,,0.00,WUHU216HW,2013-03-10 07:08:00,
2013-03-10 03:10:00,54.5,31.8,30.00,South,180,8.1,14.1,42,0.00,,,0.00,WUHU216HW,2013-03-10 07:10:00,
2013-03-10 03:13:00,54.7,32.0,30.01,SE,135,7.4,14.1,42,0.00,,,0.00,WUHU216HW,2013-03-10 07:13:00,
2013-03-10 03:14:00,54.7,32.0,30.01,ESE,113,7.6,14.1,42,0.00,,,0.00,WUHU216HW,2013-03-10 07:14:00,
2013-03-10 03:16:00,54.9,31.6,30.00,SSE,152,8.5,14.1,41,0.00,,,0.00,WUHU216HW,2013-03-10 07:16:00,
2013-03-10 03:18:00,55.1,31.8,30.00,SW,215,5.1,10.5,41,0.00,,,0.00,WUHU216HW,2013-03-10 07:18:00,
2013-03-10 03:19:00,55.1,31.8,30.00,ESE,113,8.5,10.5,41,0.00,,,0.00,WUHU216HW,2013-03-10 07:19:00,
2013-03-10 03:22:00,55.1,31.8,30.00,SE,135,10.3,10.5,41,0.00,,,0.00,WUHU216HW,2013-03-10 07:22:00,
2013-03-10 03:24:00,54.9,31.6,30.00,SW,222,5.5,10.5,41,0.00,,,0.00,WUHU216HW,2013-03-10 07:24:00,
2013-03-10 03:25:00,54.9,31.6,30.00,SSW,205,4.1,10.3,41,0.00,,,0.00,WUHU216HW,2013-03-10 07:25:00,
2013-03-10 03:27:00,54.9,31.6,30.01,SW,215,4.3,10.3,41,0.00,,,0.00,WUHU216HW,2013-03-10 07:27:00,
2013-03-10 03:29:00,54.9,31.6,30.01,SE,135,8.8,11.2,41,0.00,,,0.00,WUHU216HW,2013-03-10 07:29:00,
2013-03-10 03:30:00,54.9,31.6,30.01,SE,135,8.8,11.2,41,0.00,,,0.00,WUHU216HW,2013-03-10 07:30:00,
2013-03-10 03:33:00,54.9,31.6,30.00,SSE,158,6.3,12.1,41,0.00,,,0.00,WUHU216HW,2013-03-10 07:33:00,
2013-03-10 03:35:00,54.9,31.6,30.01,SSE,158,8.9,12.1,41,0.00,,,0.00,WUHU216HW,2013-03-10 07:35:00,
2013-03-10 03:36:00,54.9,31.6,30.01,SSE,158,8.9,12.1,41,0.00,,,0.00,WUHU216HW,2013-03-10 07:36:00,
2013-03-10 03:37:00,54.9,31.6,30.01,SE,135,6.9,12.1,41,0.00,,,0.00,WUHU216HW,2013-03-10 07:37:00,
2013-03-10 03:38:00,54.9,31.6,30.01,SSW,203,8.7,12.1,41,0.00,,,0.00,WUHU216HW,2013-03-10 07:38:00,
2013-03-10 03:41:00,54.9,31.6,30.01,SSE,158,7.2,8.9,41,0.00,,,0.00,WUHU216HW,2013-03-10 07:41:00,
2013-03-10 03:42:00,54.9,31.6,30.01,SSE,158,4.2,8.9,41,0.00,,,0.00,WUHU216HW,2013-03-10 07:42:00,
2013-03-10 03:43:00,54.9,31.6,30.01,SE,135,3.4,8.9,41,0.00,,,0.00,WUHU216HW,2013-03-10 07:43:00,
2013-03-10 03:46:00,54.9,31.6,30.01,SE,135,7.6,8.7,41,0.00,,,0.00,WUHU216HW,2013-03-10 07:46:00,
2013-03-10 03:48:00,54.7,31.4,30.01,SSE,154,5.5,8.7,41,0.00,,,0.00,WUHU216HW,2013-03-10 07:48:00,
2013-03-10 03:51:00,54.7,31.4,30.01,SW,219,6.4,8.1,41,0.00,,,0.00,WUHU216HW,2013-03-10 07:51:00,
2013-03-10 03:52:00,54.7,31.4,30.01,SSW,212,4.1,8.1,41,0.00,,,0.00,WUHU216HW,2013-03-10 07:52:00,
2013-03-10 03:54:00,54.7,31.4,30.01,SSW,204,4.7,8.1,41,0.00,,,0.00,WUHU216HW,2013-03-10 07:54:00,
2013-03-10 03:57:00,54.7,32.0,30.01,SSE,158,5.8,8.1,42,0.00,,,0.00,WUHU216HW,2013-03-10 07:57:00,
2013-03-10 03:58:00,54.7,32.0,30.01,SSE,150,4.3,8.1,42,0.00,,,0.00,WUHU216HW,2013-03-10 07:58:00,
2013-03-10 04:00:00,54.7,32.0,30.00,South,179,3.1,8.1,42,0.00,,,0.00,WUHU216HW,2013-03-10 08:00:00,
2013-03-10 04:02:00,54.5,31.8,30.00,SSW,203,6.3,6.3,42,0.00,,,0.00,WUHU216HW,2013-03-10 08:02:00,
2013-03-10 04:03:00,54.5,31.8,30.00,SSW,203,6.3,6.3,42,0.00,,,0.00,WUHU216HW,2013-03-10 08:03:00,
2013-03-10 04:04:00,54.5,31.8,30.01,SSW,203,3.4,6.3,42,0.00,,,0.00,WUHU216HW,2013-03-10 08:04:00,
2013-03-10 04:05:00,54.4,31.7,30.01,SSW,203,4.7,6.3,42,0.00,,,0.00,WUHU216HW,2013-03-10 08:05:00,
2013-03-10 04:08:00,54.4,31.7,30.01,South,180,5.4,6.3,42,0.00,,,0.00,WUHU216HW,2013-03-10 08:08:00,
2013-03-10 04:10:00,54.4,31.7,30.01,SSW,203,7.8,7.8,42,0.00,,,0.00,WUHU216HW,2013-03-10 08:10:00,
2013-03-10 04:13:00,54.5,31.8,30.00,South,177,3.9,7.8,42,0.00,,,0.00,WUHU216HW,2013-03-10 08:13:00,
2013-03-10 04:14:00,54.5,31.8,30.01,South,180,8.5,8.5,42,0.00,,,0.00,WUHU216HW,2013-03-10 08:14:00,
2013-03-10 04:15:00,54.5,31.8,30.01,SSE,157,6.6,8.5,42,0.00,,,0.00,WUHU216HW,2013-03-10 08:15:00,
2013-03-10 04:16:00,54.5,31.8,30.00,SE,135,7.6,8.5,42,0.00,,,0.00,WUHU216HW,2013-03-10 08:16:00,
2013-03-10 04:19:00,54.5,31.8,30.00,SE,125,7.4,8.5,42,0.00,,,0.00,WUHU216HW,2013-03-10 08:19:00,
2013-03-10 04:21:00,54.7,32.0,30.00,SSW,203,5.1,8.5,42,0.00,,,0.00,WUHU216HW,2013-03-10 08:21:00,
2013-03-10 04:24:00,54.7,32.0,30.00,South,176,6.8,8.5,42,0.00,,,0.00,WUHU216HW,2013-03-10 08:24:00,
2013-03-10 04:26:00,54.9,31.6,30.00,SE,135,16.6,16.6,41,0.00,,,0.00,WUHU216HW,2013-03-10 08:26:00,
2013-03-10 04:29:00,55.1,31.8,29.99,SE,135,10.5,16.6,41,0.00,,,0.00,WUHU216HW,2013-03-10 08:29:00,
2013-03-10 04:30:00,55.1,31.1,29.99,SE,135,14.3,16.6,40,0.00,,,0.00,WUHU216HW,2013-03-10 08:30:00,
2013-03-10 04:32:00,55.4,31.5,29.99,SSW,203,6.3,16.6,40,0.00,,,0.00,WUHU216HW,2013-03-10 08:32:00,
2013-03-10 04:33:00,55.4,31.5,29.99,SSE,158,6.9,16.6,40,0.00,,,0.00,WUHU216HW,2013-03-10 08:33:00,
2013-03-10 04:34:00,55.4,31.5,29.99,South,180,11.0,16.6,40,0.00,,,0.00,WUHU216HW,2013-03-10 08:34:00,
2013-03-10 04:35:00,55.4,31.5,29.99,South,172,8.4,16.6,40,0.00,,,0.00,WUHU216HW,2013-03-10 08:35:00,
2013-03-10 04:37:00,55.6,31.7,29.99,SE,127,10.2,14.3,40,0.00,,,0.00,WUHU216HW,2013-03-10 08:37:00,
2013-03-10 04:39:00,55.6,31.7,29.99,SSE,158,12.5,14.3,40,0.00,,,0.00,WUHU216HW,2013-03-10 08:39:00,
2013-03-10 04:40:00,55.6,31.7,29.99,SSE,158,12.5,14.3,40,0.00,,,0.00,WUHU216HW,2013-03-10 08:40:00,
2013-03-10 04:42:00,55.6,31.7,29.99,SE,135,7.6,12.8,40,0.00,,,0.00,WUHU216HW,2013-03-10 08:42:00,
2013-03-10 04:44:00,55.6,31.7,29.99,SE,135,6.9,12.8,40,0.00,,,0.00,WUHU216HW,2013-03-10 08:44:00,
2013-03-10 04:45:00,55.6,31.7,29.99,SE,135,11.4,12.8,40,0.00,,,0.00,WUHU216HW,2013-03-10 08:45:00,
2013-03-10 04:46:00,55.6,31.7,29.99,SSW,203,12.1,12.5,40,0.00,,,0.00,WUHU216HW,2013-03-10 08:46:00,
2013-03-10 04:48:00,55.6,31.7,29.99,South,180,5.8,12.5,40,0.00,,,0.00,WUHU216HW,2013-03-10 08:48:00,
2013-03-10 04:49:00,55.6,31.7,29.99,SE,135,7.8,12.1,40,0.00,,,0.00,WUHU216HW,2013-03-10 08:49:00,
2013-03-10 04:51:00,55.6,31.7,29.99,SE,135,6.6,12.1,40,0.00,,,0.00,WUHU216HW,2013-03-10 08:51:00,
2013-03-10 04:53:00,55.4,31.5,29.99,SSW,207,5.6,12.1,40,0.00,,,0.00,WUHU216HW,2013-03-10 08:53:00,
2013-03-10 04:55:00,55.4,31.5,29.99,ESE,122,7.9,12.1,40,0.00,,,0.00,WUHU216HW,2013-03-10 08:55:00,
2013-03-10 04:56:00,55.4,31.5,29.99,ESE,122,7.9,9.2,40,0.00,,,0.00,WUHU216HW,2013-03-10 08:56:00,
2013-03-10 04:59:00,55.4,31.5,29.99,SSE,151,5.3,9.2,40,0.00,,,0.00,WUHU216HW,2013-03-10 08:59:00,
2013-03-10 05:00:00,55.3,31.3,29.99,South,180,9.1,10.3,40,0.00,,,0.00,WUHU216HW,2013-03-10 09:00:00,
2013-03-10 05:01:00,55.4,31.5,29.99,SE,134,7.6,10.3,40,0.00,,,0.00,WUHU216HW,2013-03-10 09:01:00,
2013-03-10 05:04:00,55.3,31.9,30.00,SE,144,5.1,10.3,41,0.00,,,0.00,WUHU216HW,2013-03-10 09:04:00,
2013-03-10 05:06:00,55.3,31.9,29.99,SE,135,6.3,10.3,41,0.00,,,0.00,WUHU216HW,2013-03-10 09:06:00,
2013-03-10 05:07:00,55.3,31.9,29.99,SSE,168,6.2,10.3,41,0.00,,,0.00,WUHU216HW,2013-03-10 09:07:00,
2013-03-10 05:09:00,55.3,31.9,29.99,SSE,166,5.8,7.8,41,0.00,,,0.00,WUHU216HW,2013-03-10 09:09:00,
2013-03-10 05:11:00,55.3,31.9,29.99,SE,135,4.3,7.6,41,0.00,,,0.00,WUHU216HW,2013-03-10 09:11:00,
2013-03-10 05:12:00,55.1,31.8,29.99,SE,135,8.5,8.5,41,0.00,,,0.00,WUHU216HW,2013-03-10 09:12:00,
2013-03-10 05:13:00,55.1,31.8,29.99,SE,135,8.5,8.5,41,0.00,,,0.00,WUHU216HW,2013-03-10 09:13:00,
2013-03-10 05:15:00,55.1,31.8,29.99,SSW,203,8.1,8.5,41,0.00,,,0.00,WUHU216HW,2013-03-10 09:15:00,
2013-03-10 05:17:00,55.1,31.8,29.99,SE,134,3.6,8.5,41,0.00,,,0.00,WUHU216HW,2013-03-10 09:17:00,
2013-03-10 05:18:00,55.1,31.8,29.99,SE,134,3.6,8.5,41,0.00,,,0.00,WUHU216HW,2013-03-10 09:18:00,
2013-03-10 05:19:00,55.1,31.8,29.99,SSE,158,7.6,9.4,41,0.00,,,0.00,WUHU216HW,2013-03-10 09:19:00,
2013-03-10 05:20:00,55.1,31.8,29.99,SSE,158,6.0,9.4,41,0.00,,,0.00,WUHU216HW,2013-03-10 09:20:00,
2013-03-10 05:22:00,54.9,31.6,29.99,South,180,10.7,10.7,41,0.00,,,0.00,WUHU216HW,2013-03-10 09:22:00,
2013-03-10 05:24:00,54.9,31.6,30.00,South,170,9.9,10.7,41,0.00,,,0.00,WUHU216HW,2013-03-10 09:24:00,
2013-03-10 05:25:00,54.9,31.6,30.00,SE,135,4.3,10.7,41,0.00,,,0.00,WUHU216HW,2013-03-10 09:25:00,
2013-03-10 05:26:00,54.9,31.6,30.00,South,180,6.9,10.7,41,0.00,,,0.00,WUHU216HW,2013-03-10 09:26:00,
2013-03-10 05:28:00,54.7,31.4,29.99,SE,135,7.2,10.7,41,0.00,,,0.00,WUHU216HW,2013-03-10 09:28:00,
2013-03-10 05:29:00,54.7,31.4,29.99,SE,135,7.2,10.7,41,0.00,,,0.00,WUHU216HW,2013-03-10 09:29:00,
2013-03-10 05:30:00,54.7,31.4,29.99,South,178,5.9,10.7,41,0.00,,,0.00,WUHU216HW,2013-03-10 09:30:00,
2013-03-10 05:31:00,54.7,31.4,29.99,SE,135,5.4,10.7,41,0.00,,,0.00,WUHU216HW,2013-03-10 09:31:00,
2013-03-10 05:33:00,54.5,31.8,29.99,SE,135,6.5,7.2,42,0.00,,,0.00,WUHU216HW,2013-03-10 09:33:00,
2013-03-10 05:34:00,54.5,31.8,29.99,SE,135,6.5,7.2,42,0.00,,,0.00,WUHU216HW,2013-03-10 09:34:00,
2013-03-10 05:35:00,54.5,31.8,29.99,South,180,5.8,7.2,42,0.00,,,0.00,WUHU216HW,2013-03-10 09:35:00,
2013-03-10 05:37:00,54.5,31.8,29.99,SSE,158,6.9,7.2,42,0.00,,,0.00,WUHU216HW,2013-03-10 09:37:00,
2013-03-10 05:40:00,54.4,31.7,29.99,ESE,113,6.0,6.9,42,0.00,,,0.00,WUHU216HW,2013-03-10 09:40:00,
2013-03-10 05:41:00,54.4,31.7,29.99,ESE,119,4.3,6.9,42,0.00,,,0.00,WUHU216HW,2013-03-10 09:41:00,
2013-03-10 05:42:00,54.4,31.7,29.99,ESE,113,3.8,6.9,42,0.00,,,0.00,WUHU216HW,2013-03-10 09:42:00,
2013-03-10 05:45:00,54.4,31.7,29.99,ESE,113,8.5,8.5,42,0.00,,,0.00,WUHU216HW,2013-03-10 09:45:00,
2013-03-10 05:46:00,54.4,31.7,30.00,SSE,158,6.9,8.5,42,0.00,,,0.00,WUHU216HW,2013-03-10 09:46:00,
2013-03-10 05:47:00,54.4,31.7,30.00,SSE,149,5.7,8.5,42,0.00,,,0.00,WUHU216HW,2013-03-10 09:47:00,
2013-03-10 05:50:00,54.4,31.7,30.00,SSE,163,5.4,8.5,42,0.00,,,0.00,WUHU216HW,2013-03-10 09:50:00,
2013-03-10 05:51:00,54.4,31.7,30.00,ESE,113,7.4,8.5,42,0.00,,,0.00,WUHU216HW,2013-03-10 09:51:00,
2013-03-10 05:53:00,54.4,31.7,30.00,ESE,102,3.5,8.5,42,0.00,,,0.00,WUHU216HW,2013-03-10 09:53:00,
2013-03-10 05:55:00,54.2,32.0,30.00,South,180,10.3,10.3,43,0.00,,,0.00,WUHU216HW,2013-03-10 09:55:00,
2013-03-10 05:56:00,54.2,32.0,30.00,South,180,10.3,10.3,43,0.00,,,0.00,WUHU216HW,2013-03-10 09:56:00,
2013-03-10 05:58:00,54.4,32.2,30.00,South,184,4.8,10.3,43,0.00,,,0.00,WUHU216HW,2013-03-10 09:58:00,
2013-03-10 06:02:00,54.2,32.0,30.00,SE,135,7.5,10.3,43,0.00,,,0.00,WUHU216HW,2013-03-10 10:02:00,
2013-03-10 06:03:00,54.2,32.0,30.00,SE,133,6.0,10.3,43,0.00,,,0.00,WUHU216HW,2013-03-10 10:03:00,
2013-03-10 06:07:00,54.0,31.9,30.00,SSE,158,5.7,9.2,43,0.00,,,0.00,WUHU216HW,2013-03-10 10:07:00,
2013-03-10 06:08:00,54.0,31.9,30.00,SSW,203,7.2,9.2,43,0.00,,,0.00,WUHU216HW,2013-03-10 10:08:00,
2013-03-10 06:09:00,54.0,31.9,30.00,South,182,6.6,9.2,43,0.00,,,0.00,WUHU216HW,2013-03-10 10:09:00,
2013-03-10 06:12:00,54.0,31.9,30.01,SE,139,6.0,9.2,43,0.00,,,0.00,WUHU216HW,2013-03-10 10:12:00,
2013-03-10 06:13:00,54.0,31.9,30.01,SE,131,4.3,9.2,43,0.00,,,0.00,WUHU216HW,2013-03-10 10:13:00,
2013-03-10 06:14:00,54.0,31.9,30.01,SE,131,4.3,9.2,43,0.00,,,0.00,WUHU216HW,2013-03-10 10:14:00,
2013-03-10 06:15:00,54.0,31.9,30.01,ESE,113,7.2,7.4,43,0.00,,,0.00,WUHU216HW,2013-03-10 10:15:00,
2013-03-10 06:17:00,54.0,31.9,30.01,ESE,113,4.7,7.4,43,0.00,,,0.00,WUHU216HW,2013-03-10 10:17:00,
2013-03-10 06:18:00,54.0,31.9,30.01,SSE,158,7.8,7.8,43,0.00,,,0.00,WUHU216HW,2013-03-10 10:18:00,
2013-03-10 06:19:00,54.0,31.9,30.01,South,176,6.7,7.8,43,0.00,,,0.00,WUHU216HW,2013-03-10 10:19:00,
2013-03-10 06:21:00,53.8,31.7,30.02,SSW,192,4.3,7.8,43,0.00,,,0.00,WUHU216HW,2013-03-10 10:21:00,
2013-03-10 06:23:00,53.8,31.7,30.02,SSW,203,8.3,8.3,43,0.00,,,0.00,WUHU216HW,2013-03-10 10:23:00,
2013-03-10 06:24:00,53.6,31.6,30.02,SE,135,8.5,8.5,43,0.00,,,0.00,WUHU216HW,2013-03-10 10:24:00,
2013-03-10 06:26:00,53.6,31.6,30.02,SSE,158,8.9,8.9,43,0.00,,,0.00,WUHU216HW,2013-03-10 10:26:00,
2013-03-10 06:28:00,53.6,31.6,30.02,SSE,158,6.9,8.9,43,0.00,,,0.00,WUHU216HW,2013-03-10 10:28:00,
2013-03-10 06:29:00,53.6,31.6,30.02,SSE,158,12.1,12.1,43,0.00,,,0.00,WUHU216HW,2013-03-10 10:29:00,
2013-03-10 06:32:00,53.6,31.6,30.02,SE,135,7.2,12.1,43,0.00,,,0.00,WUHU216HW,2013-03-10 10:32:00,
2013-03-10 06:34:00,53.6,31.6,30.02,SSE,158,5.5,12.1,43,0.00,,,0.00,WUHU216HW,2013-03-10 10:34:00,
2013-03-10 06:35:00,53.6,31.6,30.02,South,188,4.3,12.1,43,0.00,,,0.00,WUHU216HW,2013-03-10 10:35:00,
2013-03-10 06:37:00,53.6,31.6,30.02,SE,135,7.2,12.1,43,0.00,,,0.00,WUHU216HW,2013-03-10 10:37:00,
2013-03-10 06:39:00,53.6,31.6,30.02,SE,135,8.1,9.6,43,0.00,,,0.00,WUHU216HW,2013-03-10 10:39:00,
2013-03-10 06:40:00,53.5,31.4,30.02,East,90,7.4,9.6,43,0.00,,,0.00,WUHU216HW,2013-03-10 10:40:00,
2013-03-10 06:41:00,53.5,31.4,30.02,East,90,7.4,9.6,43,0.00,,,0.00,WUHU216HW,2013-03-10 10:41:00,
2013-03-10 06:43:00,53.5,31.4,30.02,SSE,158,8.5,9.6,43,0.00,,,0.00,WUHU216HW,2013-03-10 10:43:00,
2013-03-10 06:45:00,53.5,31.4,30.02,SE,143,5.9,9.6,43,0.00,,,0.00,WUHU216HW,2013-03-10 10:45:00,
2013-03-10 06:47:00,53.5,31.4,30.02,ESE,113,10.1,10.1,43,0.00,,,0.00,WUHU216HW,2013-03-10 10:47:00,
2013-03-10 06:48:00,53.3,31.2,30.02,ESE,123,9.3,10.1,43,0.00,,,0.00,WUHU216HW,2013-03-10 10:48:00,
2013-03-10 06:50:00,53.3,31.2,30.02,SSW,203,6.9,10.1,43,0.00,,,0.00,WUHU216HW,2013-03-10 10:50:00,
2013-03-10 06:51:00,53.3,31.2,30.02,South,181,6.6,10.1,43,0.00,,,0.00,WUHU216HW,2013-03-10 10:51:00,
2013-03-10 06:52:00,53.3,31.2,30.02,SE,135,11.0,11.0,43,0.00,,,0.00,WUHU216HW,2013-03-10 10:52:00,
2013-03-10 06:53:00,53.3,31.2,30.02,SE,135,11.4,11.4,43,0.00,,,0.00,WUHU216HW,2013-03-10 10:53:00,
2013-03-10 06:56:00,53.3,31.8,30.02,SE,135,8.9,11.4,44,0.00,,,0.00,WUHU216HW,2013-03-10 10:56:00,
2013-03-10 06:57:00,53.3,31.8,30.02,South,177,8.5,11.4,44,0.00,,,0.00,WUHU216HW,2013-03-10 10:57:00,
2013-03-10 06:58:00,53.3,31.8,30.02,SSE,164,8.2,11.4,44,0.00,,,0.00,WUHU216HW,2013-03-10 10:58:00,
2013-03-10 07:01:00,53.1,31.6,30.02,SE,135,6.6,11.4,44,0.00,,,0.00,WUHU216HW,2013-03-10 11:01:00,
2013-03-10 07:02:00,53.1,31.6,30.02,SE,135,7.2,11.4,44,0.00,,,0.00,WUHU216HW,2013-03-10 11:02:00,
2013-03-10 07:04:00,53.1,31.6,30.02,SE,135,7.4,9.2,44,0.00,,,0.00,WUHU216HW,2013-03-10 11:04:00,
2013-03-10 07:07:00,53.1,31.6,30.02,SE,125,8.8,9.4,44,0.00,,,0.00,WUHU216HW,2013-03-10 11:07:00,
2013-03-10 07:08:00,52.9,31.5,30.02,ESE,122,7.2,9.4,44,0.00,,,0.00,WUHU216HW,2013-03-10 11:08:00,
2013-03-10 07:10:00,52.9,31.5,30.02,SE,135,9.8,9.8,44,0.00,,,0.00,WUHU216HW,2013-03-10 11:10:00,
2013-03-10 07:12:00,52.9,31.5,30.02,SSE,152,8.9,11.0,44,0.00,,,0.00,WUHU216HW,2013-03-10 11:12:00,
2013-03-10 07:15:00,52.9,31.5,30.02,SE,135,13.2,13.2,44,0.00,,,0.00,WUHU216HW,2013-03-10 11:15:00,
2013-03-10 07:17:00,52.9,30.9,30.02,ESE,113,9.5,13.2,43,0.00,,,0.00,WUHU216HW,2013-03-10 11:17:00,
2013-03-10 07:18:00,52.9,30.9,30.02,ESE,123,7.9,13.2,43,0.00,,,0.00,WUHU216HW,2013-03-10 11:18:00,
2013-03-10 07:20:00,52.9,30.9,30.02,ESE,113,11.4,13.2,43,0.00,,,0.00,WUHU216HW,2013-03-10 11:20:00,
2013-03-10 07:21:00,52.9,30.9,30.02,ESE,122,9.6,13.2,43,0.00,,,0.00,WUHU216HW,2013-03-10 11:21:00,
2013-03-10 07:22:00,53.1,31.1,30.02,SE,135,8.1,13.2,43,0.00,,,0.00,WUHU216HW,2013-03-10 11:22:00,
2013-03-10 07:24:00,53.1,31.1,30.02,ESE,113,8.5,13.2,43,0.00,,,0.00,WUHU216HW,2013-03-10 11:24:00,
2013-03-10 07:25:00,53.1,31.1,30.02,SSE,158,7.6,11.4,43,0.00,,,0.00,WUHU216HW,2013-03-10 11:25:00,
2013-03-10 07:26:00,53.1,31.1,30.02,SSE,148,6.7,11.4,43,0.00,,,0.00,WUHU216HW,2013-03-10 11:26:00,
2013-03-10 07:28:00,53.1,31.1,30.02,SSE,158,12.1,12.1,43,0.00,,,0.00,WUHU216HW,2013-03-10 11:28:00,
2013-03-10 07:29:00,53.1,31.1,30.02,SSE,147,11.0,12.1,43,0.00,,,0.00,WUHU216HW,2013-03-10 11:29:00,
2013-03-10 07:31:00,53.1,31.1,30.02,SE,135,7.1,12.1,43,0.00,,,0.00,WUHU216HW,2013-03-10 11:31:00,
2013-03-10 07:32:00,53.1,31.1,30.02,ESE,113,6.5,12.1,43,0.00,,,0.00,WUHU216HW,2013-03-10 11:32:00,
2013-03-10 07:34:00,53.1,31.1,30.02,ESE,113,5.4,12.1,43,0.00,,,0.00,WUHU216HW,2013-03-10 11:34:00,
2013-03-10 07:35:00,53.1,31.1,30.02,SSE,158,9.8,12.1,43,0.00,,,0.00,WUHU216HW,2013-03-10 11:35:00,
2013-03-10 07:36:00,53.1,31.1,30.02,East,98,10.0,12.8,43,0.00,,,0.00,WUHU216HW,2013-03-10 11:36:00,
2013-03-10 07:37:00,53.1,31.1,30.02,SSE,158,9.8,12.8,43,0.00,,,0.00,WUHU216HW,2013-03-10 11:37:00,
2013-03-10 07:39:00,53.1,31.1,30.02,SSE,158,13.9,13.9,43,0.00,,,0.00,WUHU216HW,2013-03-10 11:39:00,
2013-03-10 07:40:00,53.1,31.1,30.02,SE,135,10.3,13.9,43,0.00,,,0.00,WUHU216HW,2013-03-10 11:40:00,
2013-03-10 07:41:00,53.1,31.1,30.02,ESE,113,12.8,13.9,43,0.00,,,0.00,WUHU216HW,2013-03-10 11:41:00,
2013-03-10 07:43:00,53.1,31.1,30.02,SE,133,11.6,13.9,43,0.00,,,0.00,WUHU216HW,2013-03-10 11:43:00,
2013-03-10 07:45:00,53.1,31.1,30.02,ESE,121,8.9,13.9,43,0.00,,,0.00,WUHU216HW,2013-03-10 11:45:00,
2013-03-10 07:46:00,53.1,31.1,30.02,SSE,149,8.6,13.9,43,0.00,,,0.00,WUHU216HW,2013-03-10 11:46:00,
2013-03-10 07:47:00,53.1,31.1,30.02,SSE,149,8.6,13.9,43,0.00,,,0.00,WUHU216HW,2013-03-10 11:47:00,
2013-03-10 07:48:00,53.1,31.1,30.02,SE,135,8.9,13.9,43,0.00,,,0.00,WUHU216HW,2013-03-10 11:48:00,
2013-03-10 07:50:00,53.1,31.1,30.02,SSE,155,7.5,12.8,43,0.00,,,0.00,WUHU216HW,2013-03-10 11:50:00,
2013-03-10 07:52:00,52.9,30.9,30.02,SSE,155,12.4,13.6,43,0.00,,,0.00,WUHU216HW,2013-03-10 11:52:00,
2013-03-10 07:53:00,52.9,30.9,30.02,SSE,155,12.4,13.6,43,0.00,,,0.00,WUHU216HW,2013-03-10 11:53:00,
2013-03-10 07:56:00,52.9,30.9,30.02,South,180,6.7,13.6,43,0.00,,,0.00,WUHU216HW,2013-03-10 11:56:00,
2013-03-10 07:58:00,52.7,30.8,30.02,SE,135,10.7,13.6,43,0.00,,,0.00,WUHU216HW,2013-03-10 11:58:00,
2013-03-10 07:59:00,52.7,30.8,30.02,SSE,158,11.9,13.6,43,0.00,,,0.00,WUHU216HW,2013-03-10 11:59:00,
2013-03-10 08:01:00,52.7,30.8,30.02,SE,142,10.1,11.9,43,0.00,,,0.00,WUHU216HW,2013-03-10 12:01:00,
2013-03-10 08:03:00,52.7,31.3,30.02,SSE,158,10.5,11.9,44,0.00,,,0.00,WUHU216HW,2013-03-10 12:03:00,
2013-03-10 08:04:00,52.6,31.1,30.02,SSE,158,6.7,11.9,44,0.00,,,0.00,WUHU216HW,2013-03-10 12:04:00,
2013-03-10 08:05:00,52.6,31.1,30.02,ENE,68,3.4,11.9,44,0.00,,,0.00,WUHU216HW,2013-03-10 12:05:00,
2013-03-10 08:07:00,52.4,30.4,30.02,SSE,151,5.6,11.9,43,0.00,,,0.00,WUHU216HW,2013-03-10 12:07:00,
2013-03-10 08:09:00,52.4,30.4,30.02,SSE,158,9.2,11.4,43,0.00,,,0.00,WUHU216HW,2013-03-10 12:09:00,
2013-03-10 08:10:00,52.2,30.2,30.02,SE,135,5.8,10.5,43,0.00,,,0.00,WUHU216HW,2013-03-10 12:10:00,
2013-03-10 08:12:00,52.2,30.2,30.02,South,180,8.1,10.5,43,0.00,,,0.00,WUHU216HW,2013-03-10 12:12:00,
2013-03-10 08:13:00,52.2,30.2,30.02,South,180,8.1,9.2,43,0.00,,,0.00,WUHU216HW,2013-03-10 12:13:00,
2013-03-10 08:14:00,52.0,30.7,30.02,ESE,113,6.3,9.2,44,0.00,,,0.00,WUHU216HW,2013-03-10 12:14:00,
2013-03-10 08:15:00,51.8,30.5,30.02,SE,135,7.6,9.2,44,0.00,,,0.00,WUHU216HW,2013-03-10 12:15:00,
2013-03-10 08:18:00,51.8,30.5,30.02,SSE,158,6.7,9.2,44,0.00,,,0.00,WUHU216HW,2013-03-10 12:18:00,
2013-03-10 08:20:00,51.7,30.3,30.02,South,179,6.2,8.1,44,0.00,,,0.00,WUHU216HW,2013-03-10 12:20:00,
2013-03-10 08:23:00,51.7,30.3,30.02,ESE,113,5.4,8.9,44,0.00,,,0.00,WUHU216HW,2013-03-10 12:23:00,
2013-03-10 08:25:00,51.7,30.3,30.02,ESE,113,6.3,8.9,44,0.00,,,0.00,WUHU216HW,2013-03-10 12:25:00,
2013-03-10 08:26:00,51.5,30.7,30.02,ESE,113,11.2,11.2,45,0.00,,,0.00,WUHU216HW,2013-03-10 12:26:00,
2013-03-10 08:28:00,51.5,30.7,30.02,SE,135,11.0,11.2,45,0.00,,,0.00,WUHU216HW,2013-03-10 12:28:00,
2013-03-10 08:29:00,51.5,30.7,30.02,SE,135,10.8,11.2,45,0.00,,,0.00,WUHU216HW,2013-03-10 12:29:00,
2013-03-10 08:30:00,51.5,30.7,30.02,SE,135,10.8,11.2,45,0.00,,,0.00,WUHU216HW,2013-03-10 12:30:00,
2013-03-10 08:32:00,51.7,30.9,30.02,SE,131,7.3,11.2,45,0.00,,,0.00,WUHU216HW,2013-03-10 12:32:00,
2013-03-10 08:34:00,51.7,30.9,30.02,SE,125,6.1,11.2,45,0.00,,,0.00,WUHU216HW,2013-03-10 12:34:00,
2013-03-10 08:36:00,51.7,30.9,30.02,SE,145,5.3,11.2,45,0.00,,,0.00,WUHU216HW,2013-03-10 12:36:00,
2013-03-10 08:37:00,51.7,30.9,30.02,South,177,4.1,11.0,45,0.00,,,0.00,WUHU216HW,2013-03-10 12:37:00,
2013-03-10 08:39:00,51.8,31.1,30.02,SSE,154,7.5,10.5,45,0.00,,,0.00,WUHU216HW,2013-03-10 12:39:00,
2013-03-10 08:40:00,51.8,31.1,30.02,South,173,4.1,10.5,45,0.00,,,0.00,WUHU216HW,2013-03-10 12:40:00,
2013-03-10 08:41:00,52.0,31.2,30.02,SSE,158,4.0,10.5,45,0.00,,,0.00,WUHU216HW,2013-03-10 12:41:00,
2013-03-10 08:42:00,52.0,31.2,30.03,SE,133,7.3,10.5,45,0.00,,,0.00,WUHU216HW,2013-03-10 12:42:00,
2013-03-10 08:45:00,52.2,31.4,30.03,South,180,5.1,10.5,45,0.00,,,0.00,WUHU216HW,2013-03-10 12:45:00,
2013-03-10 08:46:00,52.2,31.4,30.03,South,180,5.1,10.5,45,0.00,,,0.00,WUHU216HW,2013-03-10 12:46:00,
2013-03-10 08:47:00,52.2,31.4,30.03,SSE,158,4.7,10.5,45,0.00,,,0.00,WUHU216HW,2013-03-10 12:47:00,
2013-03-10 08:51:00,52.4,31.5,30.02,South,180,5.4,10.5,45,0.00,,,0.00,WUHU216HW,2013-03-10 12:51:00,
2013-03-10 08:52:00,52.6,32.2,30.02,SE,135,5.4,5.4,46,0.00,,,0.00,WUHU216HW,2013-03-10 12:52:00,
2013-03-10 08:53:00,52.6,32.2,30.02,SE,135,5.4,5.4,46,0.00,,,0.00,WUHU216HW,2013-03-10 12:53:00,
2013-03-10 08:56:00,52.9,32.6,30.02,SSE,150,3.1,5.4,46,0.00,,,0.00,WUHU216HW,2013-03-10 12:56:00,
2013-03-10 08:57:00,52.9,32.6,30.02,South,180,1.8,5.4,46,0.00,,,0.00,WUHU216HW,2013-03-10 12:57:00,
2013-03-10 08:58:00,52.9,32.6,30.02,South,180,5.4,5.4,46,0.00,,,0.00,WUHU216HW,2013-03-10 12:58:00,
2013-03-10 09:01:00,53.3,33.0,30.03,SE,140,6.1,6.9,46,0.00,,,0.00,WUHU216HW,2013-03-10 13:01:00,
2013-03-10 09:03:00,53.3,33.0,30.03,SSW,203,7.4,7.4,46,0.00,,,0.00,WUHU216HW,2013-03-10 13:03:00,
2013-03-10 09:06:00,53.5,33.0,30.03,ESE,113,7.8,7.8,46,0.00,,,0.00,WUHU216HW,2013-03-10 13:06:00,
2013-03-10 09:07:00,53.6,33.2,30.02,SE,142,7.1,7.8,46,0.00,,,0.00,WUHU216HW,2013-03-10 13:07:00,
2013-03-10 09:08:00,53.5,33.0,30.02,South,180,5.9,7.8,46,0.00,,,0.00,WUHU216HW,2013-03-10 13:08:00,
2013-03-10 09:11:00,53.5,33.0,30.02,SW,225,10.3,10.3,46,0.00,,,0.00,WUHU216HW,2013-03-10 13:11:00,
2013-03-10 09:12:00,53.6,33.2,30.02,ESE,113,10.5,10.5,46,0.00,,,0.00,WUHU216HW,2013-03-10 13:12:00,
2013-03-10 09:13:00,53.6,33.2,30.03,ESE,118,6.9,10.5,46,0.00,,,0.00,WUHU216HW,2013-03-10 13:13:00,
2013-03-10 09:14:00,53.5,33.0,30.02,SE,135,7.6,10.5,46,0.00,,,0.00,WUHU216HW,2013-03-10 13:14:00,
2013-03-10 09:16:00,53.6,33.2,30.02,SSE,158,5.4,10.5,46,0.00,,,0.00,WUHU216HW,2013-03-10 13:16:00,
2013-03-10 09:18:00,53.6,33.2,30.02,SSE,158,6.7,10.5,46,0.00,,,0.00,WUHU216HW,2013-03-10 13:18:00,
2013-03-10 09:19:00,53.8,33.4,30.02,South,180,7.5,10.5,46,0.00,,,0.00,WUHU216HW,2013-03-10 13:19:00,
2013-03-10 09:22:00,54.2,33.8,30.03,SSE,158,5.6,9.6,46,0.00,,,0.00,WUHU216HW,2013-03-10 13:22:00,
2013-03-10 09:23:00,54.2,33.8,30.03,SSE,158,5.6,9.6,46,0.00,,,0.00,WUHU216HW,2013-03-10 13:23:00,
2013-03-10 09:24:00,54.4,33.8,30.03,SW,225,4.9,9.6,46,0.00,,,0.00,WUHU216HW,2013-03-10 13:24:00,
2013-03-10 09:25:00,54.4,33.8,30.03,SSE,158,11.4,11.4,46,0.00,,,0.00,WUHU216HW,2013-03-10 13:25:00,
2013-03-10 09:28:00,54.4,33.8,30.03,SSW,203,7.6,11.4,46,0.00,,,0.00,WUHU216HW,2013-03-10 13:28:00,
2013-03-10 09:30:00,54.2,33.8,30.03,ESE,113,6.0,11.4,46,0.00,,,0.00,WUHU216HW,2013-03-10 13:30:00,
2013-03-10 09:33:00,54.2,33.8,30.03,SE,135,8.5,11.4,46,0.00,,,0.00,WUHU216HW,2013-03-10 13:33:00,
2013-03-10 09:35:00,54.4,33.8,30.02,ESE,113,13.2,13.2,46,0.00,,,0.00,WUHU216HW,2013-03-10 13:35:00,
2013-03-10 09:36:00,54.4,33.8,30.02,ESE,113,13.2,13.2,46,0.00,,,0.00,WUHU216HW,2013-03-10 13:36:00,
2013-03-10 09:39:00,54.7,34.2,30.03,SE,135,8.1,13.2,46,0.00,,,0.00,WUHU216HW,2013-03-10 13:39:00,
2013-03-10 09:40:00,54.9,34.4,30.03,SSW,206,6.8,13.2,46,0.00,,,0.00,WUHU216HW,2013-03-10 13:40:00,
2013-03-10 09:41:00,54.9,34.4,30.03,SSW,206,6.8,13.2,46,0.00,,,0.00,WUHU216HW,2013-03-10 13:41:00,
2013-03-10 09:44:00,54.7,34.2,30.03,SSE,152,4.4,13.2,46,0.00,,,0.00,WUHU216HW,2013-03-10 13:44:00,
2013-03-10 09:46:00,54.9,34.4,30.03,SSE,158,6.7,8.1,46,0.00,,,0.00,WUHU216HW,2013-03-10 13:46:00,
2013-03-10 09:47:00,55.1,34.6,30.03,South,185,5.7,8.1,46,0.00,,,0.00,WUHU216HW,2013-03-10 13:47:00,
2013-03-10 09:49:00,55.3,34.7,30.03,SSE,158,5.8,7.8,46,0.00,,,0.00,WUHU216HW,2013-03-10 13:49:00,
2013-03-10 09:51:00,55.8,35.2,30.03,SE,135,10.3,10.3,46,0.00,,,0.00,WUHU216HW,2013-03-10 13:51:00,
2013-03-10 09:52:00,55.8,35.2,30.03,SE,135,10.3,10.3,46,0.00,,,0.00,WUHU216HW,2013-03-10 13:52:00,
2013-03-10 09:54:00,56.2,35.0,30.03,South,175,8.8,10.7,45,0.00,,,0.00,WUHU216HW,2013-03-10 13:54:00,
2013-03-10 09:57:00,56.2,35.0,30.03,SSE,158,9.4,10.7,45,0.00,,,0.00,WUHU216HW,2013-03-10 13:57:00,
2013-03-10 10:02:00,56.5,35.3,30.03,SSE,153,7.9,12.5,45,0.00,,,0.00,WUHU216HW,2013-03-10 14:02:00,
2013-03-10 10:03:00,56.5,35.3,30.03,ESE,113,12.3,12.5,45,0.00,,,0.00,WUHU216HW,2013-03-10 14:03:00,
2013-03-10 10:07:00,56.9,35.6,30.03,South,180,8.5,12.5,45,0.00,,,0.00,WUHU216HW,2013-03-10 14:07:00,
2013-03-10 10:08:00,56.9,35.6,30.03,South,170,7.4,12.5,45,0.00,,,0.00,WUHU216HW,2013-03-10 14:08:00,
2013-03-10 10:09:00,56.9,35.6,30.03,SSE,158,6.7,12.5,45,0.00,,,0.00,WUHU216HW,2013-03-10 14:09:00,
2013-03-10 10:14:00,57.2,36.0,30.03,SE,124,3.3,8.5,45,0.00,,,0.00,WUHU216HW,2013-03-10 14:14:00,
2013-03-10 10:15:00,57.6,36.4,30.03,SSE,158,7.6,8.5,45,0.00,,,0.00,WUHU216HW,2013-03-10 14:15:00,
2013-03-10 10:16:00,57.6,36.4,30.03,SSE,158,7.6,8.5,45,0.00,,,0.00,WUHU216HW,2013-03-10 14:16:00,
2013-03-10 10:19:00,58.0,36.1,30.03,South,182,7.2,9.2,44,0.00,,,0.00,WUHU216HW,2013-03-10 14:19:00,
2013-03-10 10:20:00,58.0,36.1,30.03,South,180,5.6,9.2,44,0.00,,,0.00,WUHU216HW,2013-03-10 14:20:00,
2013-03-10 10:21:00,58.0,36.1,30.03,SE,135,6.7,9.2,44,0.00,,,0.00,WUHU216HW,2013-03-10 14:21:00,
2013-03-10 10:22:00,58.0,36.1,30.03,SSE,155,6.9,9.2,44,0.00,,,0.00,WUHU216HW,2013-03-10 14:22:00,
2013-03-10 10:24:00,58.1,36.3,30.03,East,79,4.9,9.2,44,0.00,,,0.00,WUHU216HW,2013-03-10 14:24:00,
2013-03-10 10:25:00,58.0,36.1,30.03,South,180,6.0,9.2,44,0.00,,,0.00,WUHU216HW,2013-03-10 14:25:00,
2013-03-10 10:27:00,58.1,35.6,30.03,SE,135,9.8,9.8,43,0.00,,,0.00,WUHU216HW,2013-03-10 14:27:00,
2013-03-10 10:28:00,58.1,35.6,30.03,SE,135,9.8,9.8,43,0.00,,,0.00,WUHU216HW,2013-03-10 14:28:00,
2013-03-10 10:29:00,58.3,36.4,30.03,SE,128,4.0,9.8,44,0.00,,,0.00,WUHU216HW,2013-03-10 14:29:00,
2013-03-10 10:30:00,58.5,36.5,30.03,SSE,158,4.7,9.8,44,0.00,,,0.00,WUHU216HW,2013-03-10 14:30:00,
2013-03-10 10:33:00,58.7,36.7,30.03,SE,137,6.1,9.8,44,0.00,,,0.00,WUHU216HW,2013-03-10 14:33:00,
2013-03-10 10:35:00,59.0,37.1,30.03,South,180,6.2,9.8,44,0.00,,,0.00,WUHU216HW,2013-03-10 14:35:00,
2013-03-10 10:36:00,59.0,37.1,30.02,SSE,158,6.7,9.8,44,0.00,,,0.00,WUHU216HW,2013-03-10 14:36:00,
2013-03-10 10:38:00,59.2,36.6,30.03,SE,135,8.1,8.1,43,0.00,,,0.00,WUHU216HW,2013-03-10 14:38:00,
2013-03-10 10:39:00,59.4,36.8,30.02,SE,135,7.6,8.1,43,0.00,,,0.00,WUHU216HW,2013-03-10 14:39:00,
2013-03-10 10:40:00,59.4,36.8,30.02,SE,135,7.6,8.1,43,0.00,,,0.00,WUHU216HW,2013-03-10 14:40:00,
2013-03-10 10:41:00,59.4,36.8,30.02,SE,135,5.9,8.1,43,0.00,,,0.00,WUHU216HW,2013-03-10 14:41:00,
2013-03-10 10:44:00,59.4,36.2,30.02,SSE,158,6.5,11.4,42,0.00,,,0.00,WUHU216HW,2013-03-10 14:44:00,
2013-03-10 10:45:00,59.4,36.2,30.02,SE,135,9.9,12.3,42,0.00,,,0.00,WUHU216HW,2013-03-10 14:45:00,
2013-03-10 10:46:00,59.4,36.2,30.02,SE,135,9.9,12.3,42,0.00,,,0.00,WUHU216HW,2013-03-10 14:46:00,
2013-03-10 10:49:00,59.8,36.0,30.02,SSW,197,11.3,13.0,41,0.00,,,0.00,WUHU216HW,2013-03-10 14:49:00,
2013-03-10 10:50:00,59.8,36.0,30.02,SSE,158,10.7,13.0,41,0.00,,,0.00,WUHU216HW,2013-03-10 14:50:00,
2013-03-10 10:51:00,59.8,36.0,30.02,SSE,158,10.3,13.0,41,0.00,,,0.00,WUHU216HW,2013-03-10 14:51:00,
2013-03-10 10:52:00,59.8,36.0,30.02,SSE,158,10.3,13.0,41,0.00,,,0.00,WUHU216HW,2013-03-10 14:52:00,
2013-03-10 10:55:00,59.9,36.1,30.02,SE,135,8.5,13.0,41,0.00,,,0.00,WUHU216HW,2013-03-10 14:55:00,
2013-03-10 10:56:00,59.9,36.1,30.02,SE,135,8.5,13.0,41,0.00,,,0.00,WUHU216HW,2013-03-10 14:56:00,
2013-03-10 10:57:00,59.9,36.1,30.02,SW,225,6.0,13.0,41,0.00,,,0.00,WUHU216HW,2013-03-10 14:57:00,
2013-03-10 11:01:00,60.7,36.8,30.02,SE,135,7.6,12.8,41,0.00,,,0.00,WUHU216HW,2013-03-10 15:01:00,
2013-03-10 11:02:00,60.8,36.9,30.02,SSE,158,12.1,12.8,41,0.00,,,0.00,WUHU216HW,2013-03-10 15:02:00,
2013-03-10 11:06:00,61.2,36.7,30.02,ESE,123,11.9,13.6,40,0.00,,,0.00,WUHU216HW,2013-03-10 15:06:00,
2013-03-10 11:07:00,61.4,36.1,30.02,SE,135,10.8,13.6,39,0.00,,,0.00,WUHU216HW,2013-03-10 15:07:00,
2013-03-10 11:08:00,61.2,36.0,30.02,SE,135,11.0,13.6,39,0.00,,,0.00,WUHU216HW,2013-03-10 15:08:00,
2013-03-10 11:11:00,61.2,36.0,30.02,South,172,10.4,13.6,39,0.00,,,0.00,WUHU216HW,2013-03-10 15:11:00,
2013-03-10 11:12:00,61.2,36.7,30.02,SE,143,7.5,13.6,40,0.00,,,0.00,WUHU216HW,2013-03-10 15:12:00,
2013-03-10 11:14:00,61.4,36.1,30.02,SSW,193,12.1,12.5,39,0.00,,,0.00,WUHU216HW,2013-03-10 15:14:00,
2013-03-10 11:17:00,61.6,36.3,30.02,SSE,158,12.8,12.8,39,0.00,,,0.00,WUHU216HW,2013-03-10 15:17:00,
2013-03-10 11:18:00,61.6,36.3,30.02,SSE,158,12.8,12.8,39,0.00,,,0.00,WUHU216HW,2013-03-10 15:18:00,
2013-03-10 11:19:00,61.6,36.3,30.01,SSW,203,11.4,12.8,39,0.00,,,0.00,WUHU216HW,2013-03-10 15:19:00,
2013-03-10 11:23:00,61.7,36.5,30.01,SSE,158,11.4,12.8,39,0.00,,,0.00,WUHU216HW,2013-03-10 15:23:00,
2013-03-10 11:24:00,61.9,36.6,30.01,SSE,149,9.5,12.8,39,0.00,,,0.00,WUHU216HW,2013-03-10 15:24:00,
2013-03-10 11:25:00,61.9,36.6,30.01,South,180,8.5,12.8,39,0.00,,,0.00,WUHU216HW,2013-03-10 15:25:00,
2013-03-10 11:28:00,62.3,36.9,30.01,South,180,11.2,13.2,39,0.00,,,0.00,WUHU216HW,2013-03-10 15:28:00,
2013-03-10 11:29:00,62.3,36.9,30.01,South,180,11.2,13.2,39,0.00,,,0.00,WUHU216HW,2013-03-10 15:29:00,
2013-03-10 11:30:00,62.3,36.2,30.01,SSE,149,10.4,13.2,38,0.00,,,0.00,WUHU216HW,2013-03-10 15:30:00,
2013-03-10 11:31:00,62.3,36.2,30.01,SSW,203,14.1,14.1,38,0.00,,,0.00,WUHU216HW,2013-03-10 15:31:00,
2013-03-10 11:34:00,62.3,36.2,30.01,South,180,4.6,14.1,38,0.00,,,0.00,WUHU216HW,2013-03-10 15:34:00,
2013-03-10 11:36:00,62.6,36.5,30.01,South,180,8.7,14.1,38,0.00,,,0.00,WUHU216HW,2013-03-10 15:36:00,
2013-03-10 11:39:00,63.0,36.9,30.01,SSE,149,6.9,14.1,38,0.00,,,0.00,WUHU216HW,2013-03-10 15:39:00,
2013-03-10 11:41:00,63.2,35.6,30.02,SSW,203,16.1,16.1,36,0.00,,,0.00,WUHU216HW,2013-03-10 15:41:00,
2013-03-10 11:42:00,63.2,35.6,30.02,SSW,203,16.1,16.1,36,0.00,,,0.00,WUHU216HW,2013-03-10 15:42:00,
2013-03-10 11:44:00,63.0,36.2,30.02,SSE,158,12.3,16.6,37,0.00,,,0.00,WUHU216HW,2013-03-10 15:44:00,
2013-03-10 11:45:00,63.0,36.2,30.02,SSE,158,12.3,16.6,37,0.00,,,0.00,WUHU216HW,2013-03-10 15:45:00,
2013-03-10 11:46:00,63.0,36.2,30.02,SSE,158,13.1,16.6,37,0.00,,,0.00,WUHU216HW,2013-03-10 15:46:00,
2013-03-10 11:47:00,63.0,36.2,30.02,SSE,158,15.9,16.6,37,0.00,,,0.00,WUHU216HW,2013-03-10 15:47:00,
2013-03-10 11:50:00,63.0,35.5,30.01,SE,135,14.8,16.6,36,0.00,,,0.00,WUHU216HW,2013-03-10 15:50:00,
2013-03-10 11:52:00,63.2,35.6,30.02,SSE,158,13.6,16.6,36,0.00,,,0.00,WUHU216HW,2013-03-10 15:52:00,
2013-03-10 11:53:00,63.2,35.6,30.02,South,178,12.6,15.9,36,0.00,,,0.00,WUHU216HW,2013-03-10 15:53:00,
2013-03-10 11:55:00,63.5,35.9,30.01,SE,125,7.9,15.9,36,0.00,,,0.00,WUHU216HW,2013-03-10 15:55:00,
2013-03-10 11:57:00,63.7,36.1,30.02,SSE,158,11.9,15.9,36,0.00,,,0.00,WUHU216HW,2013-03-10 15:57:00,
2013-03-10 11:58:00,63.7,36.1,30.01,SE,135,12.8,14.8,36,0.00,,,0.00,WUHU216HW,2013-03-10 15:58:00,
2013-03-10 12:01:00,63.5,35.9,30.01,SE,142,12.1,13.6,36,0.00,,,0.00,WUHU216HW,2013-03-10 16:01:00,
2013-03-10 12:02:00,63.5,35.9,30.01,SSE,147,10.3,12.8,36,0.00,,,0.00,WUHU216HW,2013-03-10 16:02:00,
2013-03-10 12:03:00,63.5,35.9,30.01,SSE,158,11.2,12.8,36,0.00,,,0.00,WUHU216HW,2013-03-10 16:03:00,
2013-03-10 12:06:00,63.4,35.7,30.01,SSW,203,12.3,12.8,36,0.00,,,0.00,WUHU216HW,2013-03-10 16:06:00,
2013-03-10 12:07:00,63.4,35.0,30.01,SSW,203,13.4,13.4,35,0.00,,,0.00,WUHU216HW,2013-03-10 16:07:00,
2013-03-10 12:08:00,63.2,34.8,30.01,South,177,10.9,13.4,35,0.00,,,0.00,WUHU216HW,2013-03-10 16:08:00,
2013-03-10 12:09:00,63.0,35.5,30.01,West,270,8.5,13.4,36,0.00,,,0.00,WUHU216HW,2013-03-10 16:09:00,
2013-03-10 12:11:00,63.0,35.5,30.01,SE,135,11.6,13.4,36,0.00,,,0.00,WUHU216HW,2013-03-10 16:11:00,
2013-03-10 12:13:00,62.8,35.3,30.01,ESE,113,15.7,15.7,36,0.00,,,0.00,WUHU216HW,2013-03-10 16:13:00,
2013-03-10 12:14:00,62.6,35.1,30.00,SE,135,13.6,15.7,36,0.00,,,0.00,WUHU216HW,2013-03-10 16:14:00,
2013-03-10 12:17:00,62.6,35.1,30.00,SE,135,7.8,15.7,36,0.00,,,0.00,WUHU216HW,2013-03-10 16:17:00,
2013-03-10 12:19:00,63.0,36.2,30.00,SSE,158,6.5,15.7,37,0.00,,,0.00,WUHU216HW,2013-03-10 16:19:00,
2013-03-10 12:20:00,63.2,36.3,30.00,SE,135,8.9,15.7,37,0.00,,,0.00,WUHU216HW,2013-03-10 16:20:00,
2013-03-10 12:23:00,63.5,35.9,30.01,SE,135,8.8,14.5,36,0.00,,,0.00,WUHU216HW,2013-03-10 16:23:00,
2013-03-10 12:24:00,63.5,36.6,30.01,SE,135,12.1,12.8,37,0.00,,,0.00,WUHU216HW,2013-03-10 16:24:00,
2013-03-10 12:25:00,63.5,35.9,30.01,SE,135,12.3,12.8,36,0.00,,,0.00,WUHU216HW,2013-03-10 16:25:00,
2013-03-10 12:26:00,63.5,35.9,30.01,SE,135,12.3,12.8,36,0.00,,,0.00,WUHU216HW,2013-03-10 16:26:00,
2013-03-10 12:28:00,63.4,35.7,30.00,South,183,7.8,12.8,36,0.00,,,0.00,WUHU216HW,2013-03-10 16:28:00,
2013-03-10 12:29:00,63.4,35.7,30.01,SSE,161,9.1,12.8,36,0.00,,,0.00,WUHU216HW,2013-03-10 16:29:00,
2013-03-10 12:31:00,63.4,35.7,30.01,SE,135,12.1,12.8,36,0.00,,,0.00,WUHU216HW,2013-03-10 16:31:00,
2013-03-10 12:33:00,63.4,35.7,30.00,SSE,168,9.1,12.3,36,0.00,,,0.00,WUHU216HW,2013-03-10 16:33:00,
2013-03-10 12:34:00,63.4,35.7,30.00,SW,225,8.1,12.3,36,0.00,,,0.00,WUHU216HW,2013-03-10 16:34:00,
2013-03-10 12:36:00,63.4,35.7,30.00,ESE,113,12.5,12.5,36,0.00,,,0.00,WUHU216HW,2013-03-10 16:36:00,
2013-03-10 12:38:00,63.4,36.5,30.00,South,180,13.4,13.4,37,0.00,,,0.00,WUHU216HW,2013-03-10 16:38:00,
2013-03-10 12:41:00,63.7,36.1,30.00,SE,135,13.0,14.5,36,0.00,,,0.00,WUHU216HW,2013-03-10 16:41:00,
2013-03-10 12:43:00,63.7,36.1,30.00,SSE,158,14.3,14.5,36,0.00,,,0.00,WUHU216HW,2013-03-10 16:43:00,
2013-03-10 12:44:00,63.9,36.3,30.00,ESE,113,14.8,14.8,36,0.00,,,0.00,WUHU216HW,2013-03-10 16:44:00,
2013-03-10 12:46:00,63.9,36.3,30.00,South,180,9.6,14.8,36,0.00,,,0.00,WUHU216HW,2013-03-10 16:46:00,
2013-03-10 12:47:00,63.9,36.3,30.00,SSE,162,8.1,14.8,36,0.00,,,0.00,WUHU216HW,2013-03-10 16:47:00,
2013-03-10 12:48:00,63.9,36.3,30.00,ESE,113,6.9,14.8,36,0.00,,,0.00,WUHU216HW,2013-03-10 16:48:00,
2013-03-10 12:49:00,64.1,37.1,30.00,SSW,203,8.1,14.8,37,0.00,,,0.00,WUHU216HW,2013-03-10 16:49:00,
2013-03-10 12:52:00,64.6,36.9,30.00,South,175,11.6,14.8,36,0.00,,,0.00,WUHU216HW,2013-03-10 16:52:00,
2013-03-10 12:54:00,65.0,37.2,30.00,SE,135,8.7,14.8,36,0.00,,,0.00,WUHU216HW,2013-03-10 16:54:00,
2013-03-10 12:55:00,65.5,38.4,30.00,SE,135,9.8,14.1,37,0.00,,,0.00,WUHU216HW,2013-03-10 16:55:00,
2013-03-10 12:57:00,65.7,37.9,29.99,SE,135,8.6,14.1,36,0.00,,,0.00,WUHU216HW,2013-03-10 16:57:00,
2013-03-10 12:58:00,65.9,38.0,29.99,ESE,113,13.9,14.1,36,0.00,,,0.00,WUHU216HW,2013-03-10 16:58:00,
2013-03-10 13:01:00,66.6,38.6,30.00,SE,138,8.6,13.9,36,0.00,,,0.00,WUHU216HW,2013-03-10 17:01:00,
2013-03-10 13:02:00,66.8,38.8,30.00,SSW,203,6.9,13.9,36,0.00,,,0.00,WUHU216HW,2013-03-10 17:02:00,
2013-03-10 13:03:00,67.0,39.0,29.99,ESE,113,7.8,13.9,36,0.00,,,0.00,WUHU216HW,2013-03-10 17:03:00,
2013-03-10 13:06:00,67.7,38.1,29.99,NE,45,12.8,13.9,34,0.00,,,0.00,WUHU216HW,2013-03-10 17:06:00,
2013-03-10 13:07:00,67.7,38.1,29.99,ESE,106,12.2,13.9,34,0.00,,,0.00,WUHU216HW,2013-03-10 17:07:00,
2013-03-10 13:08:00,67.7,38.1,29.99,ESE,106,12.2,12.8,34,0.00,,,0.00,WUHU216HW,2013-03-10 17:08:00,
2013-03-10 13:09:00,67.5,37.3,29.99,ESE,113,16.8,16.8,33,0.00,,,0.00,WUHU216HW,2013-03-10 17:09:00,
2013-03-10 13:12:00,66.6,36.5,29.98,SE,135,12.1,16.8,33,0.00,,,0.00,WUHU216HW,2013-03-10 17:12:00,
2013-03-10 13:13:00,66.6,36.5,29.98,SE,135,12.1,16.8,33,0.00,,,0.00,WUHU216HW,2013-03-10 17:13:00,
2013-03-10 13:14:00,65.9,35.8,29.98,SSE,158,9.4,16.8,33,0.00,,,0.00,WUHU216HW,2013-03-10 17:14:00,
2013-03-10 13:17:00,65.5,35.6,29.98,East,90,10.5,16.8,33,0.00,,,0.00,WUHU216HW,2013-03-10 17:17:00,
2013-03-10 13:18:00,65.5,35.6,29.98,East,90,10.5,15.0,33,0.00,,,0.00,WUHU216HW,2013-03-10 17:18:00,
2013-03-10 13:19:00,65.5,35.6,29.97,SSE,158,11.2,12.5,33,0.00,,,0.00,WUHU216HW,2013-03-10 17:19:00,
2013-03-10 13:20:00,65.7,35.7,29.97,ESE,113,13.9,13.9,33,0.00,,,0.00,WUHU216HW,2013-03-10 17:20:00,
2013-03-10 13:23:00,66.1,36.7,29.97,South,180,10.5,15.7,34,0.00,,,0.00,WUHU216HW,2013-03-10 17:23:00,
2013-03-10 13:24:00,66.6,37.2,29.97,SSE,158,8.1,15.7,34,0.00,,,0.00,WUHU216HW,2013-03-10 17:24:00,
2013-03-10 13:25:00,66.8,37.4,29.98,SSE,147,7.7,15.7,34,0.00,,,0.00,WUHU216HW,2013-03-10 17:25:00,
2013-03-10 13:28:00,67.1,36.9,29.98,East,90,11.4,15.7,33,0.00,,,0.00,WUHU216HW,2013-03-10 17:28:00,
2013-03-10 13:29:00,67.1,36.9,29.98,East,90,11.4,15.7,33,0.00,,,0.00,WUHU216HW,2013-03-10 17:29:00,
2013-03-10 13:30:00,67.3,37.1,29.98,ESE,110,8.4,15.7,33,0.00,,,0.00,WUHU216HW,2013-03-10 17:30:00,
2013-03-10 13:33:00,67.1,36.9,29.98,SSE,158,10.5,15.0,33,0.00,,,0.00,WUHU216HW,2013-03-10 17:33:00,
2013-03-10 13:34:00,67.1,36.9,29.98,SSE,158,10.5,15.0,33,0.00,,,0.00,WUHU216HW,2013-03-10 17:34:00,
2013-03-10 13:35:00,67.3,37.1,29.98,SE,135,14.5,15.0,33,0.00,,,0.00,WUHU216HW,2013-03-10 17:35:00,
2013-03-10 13:36:00,67.3,37.1,29.98,South,171,11.6,15.0,33,0.00,,,0.00,WUHU216HW,2013-03-10 17:36:00,
2013-03-10 13:39:00,67.3,37.1,29.98,South,176,5.9,15.0,33,0.00,,,0.00,WUHU216HW,2013-03-10 17:39:00,
2013-03-10 13:41:00,67.3,37.1,29.97,SE,135,12.8,14.5,33,0.00,,,0.00,WUHU216HW,2013-03-10 17:41:00,
2013-03-10 13:45:00,67.9,38.3,29.97,SE,125,9.2,14.5,34,0.00,,,0.00,WUHU216HW,2013-03-10 17:45:00,
2013-03-10 13:46:00,68.2,38.6,29.97,ESE,113,6.9,12.8,34,0.00,,,0.00,WUHU216HW,2013-03-10 17:46:00,
2013-03-10 13:50:00,68.4,38.0,29.97,SE,135,9.8,12.1,33,0.00,,,0.00,WUHU216HW,2013-03-10 17:50:00,
2013-03-10 13:51:00,68.4,38.0,29.97,SE,135,9.8,12.1,33,0.00,,,0.00,WUHU216HW,2013-03-10 17:51:00,
2013-03-10 13:52:00,68.4,38.0,29.97,SE,135,15.4,15.4,33,0.00,,,0.00,WUHU216HW,2013-03-10 17:52:00,
2013-03-10 13:56:00,68.0,36.9,29.97,ESE,121,10.1,15.4,32,0.00,,,0.00,WUHU216HW,2013-03-10 17:56:00,
2013-03-10 13:57:00,68.0,36.9,29.97,SE,135,7.4,15.4,32,0.00,,,0.00,WUHU216HW,2013-03-10 17:57:00,
2013-03-10 13:58:00,68.0,37.7,29.97,ESE,113,7.8,15.4,33,0.00,,,0.00,WUHU216HW,2013-03-10 17:58:00,
2013-03-10 14:01:00,68.6,38.2,29.97,South,180,11.6,15.4,33,0.00,,,0.00,WUHU216HW,2013-03-10 18:01:00,
2013-03-10 14:02:00,68.8,38.4,29.97,SSE,162,9.6,15.4,33,0.00,,,0.00,WUHU216HW,2013-03-10 18:02:00,
2013-03-10 14:04:00,69.5,38.3,29.97,SE,135,9.2,12.5,32,0.00,,,0.00,WUHU216HW,2013-03-10 18:04:00,
2013-03-10 14:06:00,69.8,38.5,29.97,SSE,164,8.1,11.6,32,0.00,,,0.00,WUHU216HW,2013-03-10 18:06:00,
2013-03-10 14:07:00,70.2,38.9,29.96,SE,145,5.2,11.6,32,0.00,,,0.00,WUHU216HW,2013-03-10 18:07:00,
2013-03-10 14:08:00,70.4,39.1,29.96,ESE,113,13.6,13.6,32,0.00,,,0.00,WUHU216HW,2013-03-10 18:08:00,
2013-03-10 14:10:00,70.6,38.4,29.97,SSE,158,9.2,13.6,31,0.00,,,0.00,WUHU216HW,2013-03-10 18:10:00,
2013-03-10 14:12:00,70.7,38.6,29.97,SSE,158,11.0,13.6,31,0.00,,,0.00,WUHU216HW,2013-03-10 18:12:00,
2013-03-10 14:13:00,70.7,38.6,29.97,SSE,158,11.0,13.6,31,0.00,,,0.00,WUHU216HW,2013-03-10 18:13:00,
2013-03-10 14:15:00,70.6,38.4,29.97,SW,225,5.3,13.6,31,0.00,,,0.00,WUHU216HW,2013-03-10 18:15:00,
2013-03-10 14:17:00,70.4,38.4,29.97,SE,135,12.1,13.6,31,0.00,,,0.00,WUHU216HW,2013-03-10 18:17:00,
2013-03-10 14:18:00,70.2,37.5,29.97,SE,135,11.8,12.1,30,0.00,,,0.00,WUHU216HW,2013-03-10 18:18:00,
2013-03-10 14:19:00,70.2,37.5,29.97,SE,135,11.4,12.1,30,0.00,,,0.00,WUHU216HW,2013-03-10 18:19:00,
2013-03-10 14:20:00,69.7,36.9,29.97,ESE,113,11.4,12.1,30,0.00,,,0.00,WUHU216HW,2013-03-10 18:20:00,
2013-03-10 14:22:00,69.3,37.4,29.97,SE,135,9.2,12.1,31,0.00,,,0.00,WUHU216HW,2013-03-10 18:22:00,
2013-03-10 14:23:00,69.3,37.4,29.96,SSE,158,13.9,13.9,31,0.00,,,0.00,WUHU216HW,2013-03-10 18:23:00,
2013-03-10 14:24:00,69.3,37.4,29.96,SSE,158,13.9,13.9,31,0.00,,,0.00,WUHU216HW,2013-03-10 18:24:00,
2013-03-10 14:26:00,69.1,37.2,29.96,ESE,113,11.4,13.9,31,0.00,,,0.00,WUHU216HW,2013-03-10 18:26:00,
2013-03-10 14:27:00,68.9,37.0,29.96,SE,135,7.3,13.9,31,0.00,,,0.00,WUHU216HW,2013-03-10 18:27:00,
2013-03-10 14:29:00,68.8,36.8,29.96,ESE,109,10.1,13.9,31,0.00,,,0.00,WUHU216HW,2013-03-10 18:29:00,
2013-03-10 14:31:00,68.4,36.6,29.96,South,180,9.6,13.9,31,0.00,,,0.00,WUHU216HW,2013-03-10 18:31:00,
2013-03-10 14:33:00,68.4,36.6,29.96,South,169,9.1,13.9,31,0.00,,,0.00,WUHU216HW,2013-03-10 18:33:00,
2013-03-10 14:34:00,68.4,37.3,29.96,South,186,7.6,11.6,32,0.00,,,0.00,WUHU216HW,2013-03-10 18:34:00,
2013-03-10 14:36:00,68.4,36.6,29.95,SE,133,9.1,11.6,31,0.00,,,0.00,WUHU216HW,2013-03-10 18:36:00,
2013-03-10 14:39:00,68.8,37.6,29.95,SE,145,9.1,9.8,32,0.00,,,0.00,WUHU216HW,2013-03-10 18:39:00,
2013-03-10 14:40:00,68.8,37.6,29.95,SE,145,9.1,9.8,32,0.00,,,0.00,WUHU216HW,2013-03-10 18:40:00,
2013-03-10 14:41:00,68.8,37.6,29.95,SSE,158,9.2,9.8,32,0.00,,,0.00,WUHU216HW,2013-03-10 18:41:00,
2013-03-10 14:44:00,69.1,38.6,29.95,SE,144,5.5,9.8,33,0.00,,,0.00,WUHU216HW,2013-03-10 18:44:00,
2013-03-10 14:45:00,69.1,38.6,29.95,SE,144,5.5,9.8,33,0.00,,,0.00,WUHU216HW,2013-03-10 18:45:00,
2013-03-10 14:47:00,69.5,37.5,29.95,SSE,158,12.8,13.4,31,0.00,,,0.00,WUHU216HW,2013-03-10 18:47:00,
2013-03-10 14:50:00,69.3,37.4,29.95,SSE,158,15.2,15.2,31,0.00,,,0.00,WUHU216HW,2013-03-10 18:50:00,
2013-03-10 14:51:00,69.1,36.5,29.95,SSE,148,12.8,15.2,30,0.00,,,0.00,WUHU216HW,2013-03-10 18:51:00,
2013-03-10 14:53:00,68.9,36.3,29.95,ESE,107,8.1,15.2,30,0.00,,,0.00,WUHU216HW,2013-03-10 18:53:00,
2013-03-10 14:55:00,68.6,36.7,29.95,SSE,148,7.8,15.2,31,0.00,,,0.00,WUHU216HW,2013-03-10 18:55:00,
2013-03-10 14:56:00,68.6,36.7,29.95,SSE,148,7.8,15.2,31,0.00,,,0.00,WUHU216HW,2013-03-10 18:56:00,
2013-03-10 14:57:00,68.4,36.6,29.95,ESE,113,9.8,15.2,31,0.00,,,0.00,WUHU216HW,2013-03-10 18:57:00,
2013-03-10 14:58:00,68.4,36.6,29.94,SE,135,10.1,15.2,31,0.00,,,0.00,WUHU216HW,2013-03-10 18:58:00,
2013-03-10 15:01:00,67.7,35.9,29.94,ESE,116,7.8,10.3,31,0.00,,,0.00,WUHU216HW,2013-03-10 19:01:00,
2013-03-10 15:02:00,67.7,36.6,29.94,SW,225,9.8,10.3,32,0.00,,,0.00,WUHU216HW,2013-03-10 19:02:00,
2013-03-10 15:03:00,67.7,36.6,29.94,South,181,9.6,10.3,32,0.00,,,0.00,WUHU216HW,2013-03-10 19:03:00,
2013-03-10 15:07:00,67.7,36.6,29.93,ESE,112,6.9,10.3,32,0.00,,,0.00,WUHU216HW,2013-03-10 19:07:00,
2013-03-10 15:08:00,67.7,36.6,29.94,SE,135,7.6,10.3,32,0.00,,,0.00,WUHU216HW,2013-03-10 19:08:00,
2013-03-10 15:12:00,67.7,36.6,29.93,ESE,113,5.3,9.8,32,0.00,,,0.00,WUHU216HW,2013-03-10 19:12:00,
2013-03-10 15:13:00,67.9,36.8,29.94,SSE,158,4.3,9.8,32,0.00,,,0.00,WUHU216HW,2013-03-10 19:13:00,
2013-03-10 15:14:00,67.9,36.8,29.94,SSE,158,4.3,9.8,32,0.00,,,0.00,WUHU216HW,2013-03-10 19:14:00,
2013-03-10 15:18:00,67.9,36.8,29.93,ESE,113,7.6,11.9,32,0.00,,,0.00,WUHU216HW,2013-03-10 19:18:00,
2013-03-10 15:19:00,67.9,36.8,29.93,SE,135,7.6,11.9,32,0.00,,,0.00,WUHU216HW,2013-03-10 19:19:00,
2013-03-10 15:20:00,68.0,36.9,29.93,SE,135,6.3,11.9,32,0.00,,,0.00,WUHU216HW,2013-03-10 19:20:00,
2013-03-10 15:23:00,68.0,36.9,29.93,SE,135,8.1,11.9,32,0.00,,,0.00,WUHU216HW,2013-03-10 19:23:00,
2013-03-10 15:24:00,68.0,36.9,29.93,SE,135,9.8,11.6,32,0.00,,,0.00,WUHU216HW,2013-03-10 19:24:00,
2013-03-10 15:25:00,68.0,36.9,29.93,SE,135,7.4,9.8,32,0.00,,,0.00,WUHU216HW,2013-03-10 19:25:00,
2013-03-10 15:28:00,68.0,36.2,29.93,ESE,113,8.1,9.8,31,0.00,,,0.00,WUHU216HW,2013-03-10 19:28:00,
2013-03-10 15:29:00,68.0,36.2,29.93,SE,135,10.1,10.1,31,0.00,,,0.00,WUHU216HW,2013-03-10 19:29:00,
2013-03-10 15:30:00,68.2,36.4,29.93,SSE,161,8.4,10.1,31,0.00,,,0.00,WUHU216HW,2013-03-10 19:30:00,
2013-03-10 15:31:00,68.2,36.4,29.93,SSE,161,8.4,10.1,31,0.00,,,0.00,WUHU216HW,2013-03-10 19:31:00,
2013-03-10 15:34:00,68.4,36.6,29.92,ESE,113,10.3,10.3,31,0.00,,,0.00,WUHU216HW,2013-03-10 19:34:00,
2013-03-10 15:35:00,68.4,36.6,29.92,ESE,113,10.3,10.3,31,0.00,,,0.00,WUHU216HW,2013-03-10 19:35:00,
2013-03-10 15:36:00,68.4,35.8,29.92,SE,135,11.2,11.2,30,0.00,,,0.00,WUHU216HW,2013-03-10 19:36:00,
2013-03-10 15:37:00,68.8,36.1,29.92,SE,135,11.6,12.8,30,0.00,,,0.00,WUHU216HW,2013-03-10 19:37:00,
2013-03-10 15:39:00,68.8,36.1,29.92,SE,136,11.3,12.8,30,0.00,,,0.00,WUHU216HW,2013-03-10 19:39:00,
2013-03-10 15:40:00,68.9,36.3,29.92,SE,135,15.4,15.4,30,0.00,,,0.00,WUHU216HW,2013-03-10 19:40:00,
2013-03-10 15:41:00,68.9,35.3,29.92,SE,135,10.9,15.4,29,0.00,,,0.00,WUHU216HW,2013-03-10 19:41:00,
2013-03-10 15:42:00,69.1,35.5,29.92,SW,225,10.1,15.4,29,0.00,,,0.00,WUHU216HW,2013-03-10 19:42:00,
2013-03-10 15:44:00,69.5,36.7,29.92,SSE,158,10.1,15.4,30,0.00,,,0.00,WUHU216HW,2013-03-10 19:44:00,
2013-03-10 15:46:00,69.7,35.9,29.92,SE,138,9.1,15.4,29,0.00,,,0.00,WUHU216HW,2013-03-10 19:46:00,
2013-03-10 15:47:00,70.0,37.3,29.92,South,182,8.3,15.4,30,0.00,,,0.00,WUHU216HW,2013-03-10 19:47:00,
2013-03-10 15:48:00,70.0,37.3,29.92,South,182,8.3,15.4,30,0.00,,,0.00,WUHU216HW,2013-03-10 19:48:00,
2013-03-10 15:50:00,70.4,37.5,29.92,ESE,119,12.3,17.0,30,0.00,,,0.00,WUHU216HW,2013-03-10 19:50:00,
2013-03-10 15:52:00,70.7,36.9,29.92,ESE,113,12.3,17.0,29,0.00,,,0.00,WUHU216HW,2013-03-10 19:52:00,
2013-03-10 15:53:00,70.7,36.9,29.92,SE,135,12.3,17.0,29,0.00,,,0.00,WUHU216HW,2013-03-10 19:53:00,
2013-03-10 15:55:00,70.9,37.0,29.92,South,171,7.9,17.0,29,0.00,,,0.00,WUHU216HW,2013-03-10 19:55:00,
2013-03-10 15:58:00,70.9,37.0,29.92,ESE,113,10.5,14.8,29,0.00,,,0.00,WUHU216HW,2013-03-10 19:58:00,
2013-03-10 15:59:00,70.9,37.0,29.92,ESE,113,10.5,14.8,29,0.00,,,0.00,WUHU216HW,2013-03-10 19:59:00,
2013-03-10 16:00:00,70.9,37.0,29.92,South,173,9.3,14.8,29,0.00,,,0.00,WUHU216HW,2013-03-10 20:00:00,
2013-03-10 16:02:00,70.9,36.0,29.92,SSE,158,6.9,14.8,28,0.00,,,0.00,WUHU216HW,2013-03-10 20:02:00,
2013-03-10 16:03:00,71.1,36.2,29.92,SSW,201,7.1,14.8,28,0.00,,,0.00,WUHU216HW,2013-03-10 20:03:00,
2013-03-10 16:04:00,71.1,36.2,29.92,SE,135,6.9,14.8,28,0.00,,,0.00,WUHU216HW,2013-03-10 20:04:00,
2013-03-10 16:05:00,71.1,36.2,29.92,SSE,151,5.3,14.8,28,0.00,,,0.00,WUHU216HW,2013-03-10 20:05:00,
2013-03-10 16:07:00,71.3,36.4,29.92,SE,146,6.8,10.5,28,0.00,,,0.00,WUHU216HW,2013-03-10 20:07:00,
2013-03-10 16:09:00,71.3,36.4,29.92,ESE,109,4.7,10.3,28,0.00,,,0.00,WUHU216HW,2013-03-10 20:09:00,
2013-03-10 16:10:00,71.1,36.2,29.92,SSE,152,7.1,8.9,28,0.00,,,0.00,WUHU216HW,2013-03-10 20:10:00,
2013-03-10 16:11:00,71.1,36.2,29.93,SSE,161,4.7,8.9,28,0.00,,,0.00,WUHU216HW,2013-03-10 20:11:00,
2013-03-10 16:12:00,70.9,37.0,29.92,SSW,203,6.5,8.9,29,0.00,,,0.00,WUHU216HW,2013-03-10 20:12:00,
2013-03-10 16:14:00,70.9,37.0,29.93,ESE,113,4.7,8.9,29,0.00,,,0.00,WUHU216HW,2013-03-10 20:14:00,
2013-03-10 16:15:00,70.9,37.0,29.93,SE,135,7.6,8.9,29,0.00,,,0.00,WUHU216HW,2013-03-10 20:15:00,
2013-03-10 16:18:00,70.9,35.0,29.93,ESE,113,11.4,11.4,27,0.00,,,0.00,WUHU216HW,2013-03-10 20:18:00,
2013-03-10 16:19:00,70.9,35.0,29.92,ESE,123,10.6,11.4,27,0.00,,,0.00,WUHU216HW,2013-03-10 20:19:00,
2013-03-10 16:21:00,70.7,33.9,29.93,SE,135,8.3,11.4,26,0.00,,,0.00,WUHU216HW,2013-03-10 20:21:00,
2013-03-10 16:23:00,70.4,33.5,29.92,SSE,158,10.1,11.4,26,0.00,,,0.00,WUHU216HW,2013-03-10 20:23:00,
2013-03-10 16:25:00,70.2,32.3,29.93,SE,135,11.0,11.4,25,0.00,,,0.00,WUHU216HW,2013-03-10 20:25:00,
2013-03-10 16:26:00,70.2,33.4,29.92,SSE,165,10.1,11.4,26,0.00,,,0.00,WUHU216HW,2013-03-10 20:26:00,
2013-03-10 16:28:00,69.8,33.0,29.93,South,186,6.4,11.0,26,0.00,,,0.00,WUHU216HW,2013-03-10 20:28:00,
2013-03-10 16:30:00,69.8,33.0,29.92,SE,135,6.9,11.0,26,0.00,,,0.00,WUHU216HW,2013-03-10 20:30:00,
2013-03-10 16:31:00,69.8,33.0,29.93,SSW,203,10.5,11.0,26,0.00,,,0.00,WUHU216HW,2013-03-10 20:31:00,
2013-03-10 16:34:00,70.0,33.2,29.93,SSW,203,9.6,12.3,26,0.00,,,0.00,WUHU216HW,2013-03-10 20:34:00,
2013-03-10 16:35:00,70.2,33.4,29.92,South,180,10.5,12.3,26,0.00,,,0.00,WUHU216HW,2013-03-10 20:35:00,
2013-03-10 16:37:00,70.2,33.4,29.92,SSE,161,9.1,12.3,26,0.00,,,0.00,WUHU216HW,2013-03-10 20:37:00,
2013-03-10 16:39:00,70.2,33.4,29.92,SE,135,10.5,12.3,26,0.00,,,0.00,WUHU216HW,2013-03-10 20:39:00,
2013-03-10 16:42:00,70.2,33.4,29.92,ESE,113,5.6,10.5,26,0.00,,,0.00,WUHU216HW,2013-03-10 20:42:00,
2013-03-10 16:43:00,70.2,34.4,29.92,SE,135,11.6,11.6,27,0.00,,,0.00,WUHU216HW,2013-03-10 20:43:00,
2013-03-10 16:44:00,70.2,34.4,29.92,SE,135,11.6,11.6,27,0.00,,,0.00,WUHU216HW,2013-03-10 20:44:00,
2013-03-10 16:47:00,69.8,33.0,29.92,South,172,9.2,14.1,26,0.00,,,0.00,WUHU216HW,2013-03-10 20:47:00,
2013-03-10 16:48:00,69.8,33.0,29.92,South,180,10.5,14.1,26,0.00,,,0.00,WUHU216HW,2013-03-10 20:48:00,
2013-03-10 16:49:00,69.8,33.0,29.92,South,180,10.5,14.1,26,0.00,,,0.00,WUHU216HW,2013-03-10 20:49:00,
2013-03-10 16:50:00,69.8,33.0,29.92,ESE,113,10.7,14.1,26,0.00,,,0.00,WUHU216HW,2013-03-10 20:50:00,
2013-03-10 16:52:00,69.3,32.6,29.92,ESE,113,9.7,14.1,26,0.00,,,0.00,WUHU216HW,2013-03-10 20:52:00,
2013-03-10 16:53:00,69.3,32.6,29.92,ESE,113,6.4,14.1,26,0.00,,,0.00,WUHU216HW,2013-03-10 20:53:00,
2013-03-10 16:54:00,69.3,34.6,29.92,SE,135,6.5,14.1,28,0.00,,,0.00,WUHU216HW,2013-03-10 20:54:00,
2013-03-10 16:55:00,69.3,34.6,29.92,SE,145,5.9,11.9,28,0.00,,,0.00,WUHU216HW,2013-03-10 20:55:00,
2013-03-10 16:58:00,69.3,34.6,29.92,SE,135,7.6,11.6,28,0.00,,,0.00,WUHU216HW,2013-03-10 20:58:00,
2013-03-10 16:59:00,69.5,34.7,29.92,SE,135,11.9,11.9,28,0.00,,,0.00,WUHU216HW,2013-03-10 20:59:00,
2013-03-10 17:00:00,69.3,34.6,29.92,ESE,122,8.4,11.9,28,0.00,,,0.00,WUHU216HW,2013-03-10 21:00:00,
2013-03-10 17:01:00,69.3,34.6,29.92,SE,141,7.3,11.9,28,0.00,,,0.00,WUHU216HW,2013-03-10 21:01:00,
2013-03-10 17:03:00,69.1,34.5,29.92,SSE,162,9.6,11.9,28,0.00,,,0.00,WUHU216HW,2013-03-10 21:03:00,
2013-03-10 17:05:00,69.1,34.5,29.92,SE,135,7.8,11.9,28,0.00,,,0.00,WUHU216HW,2013-03-10 21:05:00,
2013-03-10 17:06:00,69.1,34.5,29.92,East,90,8.7,11.9,28,0.00,,,0.00,WUHU216HW,2013-03-10 21:06:00,
2013-03-10 17:09:00,69.1,34.5,29.92,SE,126,8.8,11.4,28,0.00,,,0.00,WUHU216HW,2013-03-10 21:09:00,
2013-03-10 17:10:00,69.1,34.5,29.92,SE,135,16.3,16.3,28,0.00,,,0.00,WUHU216HW,2013-03-10 21:10:00,
2013-03-10 17:11:00,68.9,34.3,29.92,SE,144,13.4,16.3,28,0.00,,,0.00,WUHU216HW,2013-03-10 21:11:00,
2013-03-10 17:13:00,69.1,34.5,29.92,SSE,165,8.1,16.3,28,0.00,,,0.00,WUHU216HW,2013-03-10 21:13:00,
2013-03-10 17:14:00,68.9,34.3,29.92,ESE,122,9.1,16.3,28,0.00,,,0.00,WUHU216HW,2013-03-10 21:14:00,
2013-03-10 17:17:00,68.9,34.3,29.92,ESE,113,9.2,16.3,28,0.00,,,0.00,WUHU216HW,2013-03-10 21:17:00,
2013-03-10 17:18:00,68.9,34.3,29.92,SE,135,12.5,16.3,28,0.00,,,0.00,WUHU216HW,2013-03-10 21:18:00,
2013-03-10 17:20:00,68.8,34.1,29.92,SE,135,11.4,16.3,28,0.00,,,0.00,WUHU216HW,2013-03-10 21:20:00,
2013-03-10 17:23:00,68.8,34.1,29.91,SE,125,8.5,12.5,28,0.00,,,0.00,WUHU216HW,2013-03-10 21:23:00,
2013-03-10 17:25:00,68.4,33.9,29.91,SSW,203,11.9,12.5,28,0.00,,,0.00,WUHU216HW,2013-03-10 21:25:00,
2013-03-10 17:28:00,68.0,33.5,29.91,SE,135,8.7,13.2,28,0.00,,,0.00,WUHU216HW,2013-03-10 21:28:00,
2013-03-10 17:29:00,68.0,33.5,29.91,SE,144,7.3,13.2,28,0.00,,,0.00,WUHU216HW,2013-03-10 21:29:00,
2013-03-10 17:30:00,68.0,34.5,29.91,SE,146,5.7,13.2,29,0.00,,,0.00,WUHU216HW,2013-03-10 21:30:00,
2013-03-10 17:33:00,67.9,34.3,29.90,SSE,160,8.7,13.2,29,0.00,,,0.00,WUHU216HW,2013-03-10 21:33:00,
2013-03-10 17:34:00,67.9,34.3,29.90,SSE,160,8.7,13.2,29,0.00,,,0.00,WUHU216HW,2013-03-10 21:34:00,
2013-03-10 17:35:00,67.7,34.2,29.90,SSE,158,7.2,13.2,29,0.00,,,0.00,WUHU216HW,2013-03-10 21:35:00,
2013-03-10 17:39:00,67.5,34.0,29.90,SSW,203,9.2,10.5,29,0.00,,,0.00,WUHU216HW,2013-03-10 21:39:00,
2013-03-10 17:40:00,67.7,34.2,29.90,SE,135,8.3,10.5,29,0.00,,,0.00,WUHU216HW,2013-03-10 21:40:00,
2013-03-10 17:41:00,67.7,34.2,29.90,SE,135,5.6,10.5,29,0.00,,,0.00,WUHU216HW,2013-03-10 21:41:00,
2013-03-10 17:44:00,67.7,35.2,29.90,South,188,5.8,10.5,30,0.00,,,0.00,WUHU216HW,2013-03-10 21:44:00,
2013-03-10 17:45:00,67.9,35.3,29.89,SSE,158,7.8,10.5,30,0.00,,,0.00,WUHU216HW,2013-03-10 21:45:00,
2013-03-10 17:47:00,67.9,34.3,29.90,SSE,158,7.7,9.2,29,0.00,,,0.00,WUHU216HW,2013-03-10 21:47:00,
2013-03-10 17:49:00,67.9,34.3,29.90,ESE,115,8.3,9.2,29,0.00,,,0.00,WUHU216HW,2013-03-10 21:49:00,
2013-03-10 17:50:00,67.9,35.3,29.90,SE,135,7.6,9.2,30,0.00,,,0.00,WUHU216HW,2013-03-10 21:50:00,
2013-03-10 17:52:00,67.9,34.3,29.90,SE,135,8.9,9.2,29,0.00,,,0.00,WUHU216HW,2013-03-10 21:52:00,
2013-03-10 17:56:00,67.9,34.3,29.90,SE,139,7.3,12.8,29,0.00,,,0.00,WUHU216HW,2013-03-10 21:56:00,
2013-03-10 17:57:00,67.9,34.3,29.90,ESE,113,5.7,12.8,29,0.00,,,0.00,WUHU216HW,2013-03-10 21:57:00,
2013-03-10 17:58:00,67.9,35.3,29.90,SSE,154,5.1,12.8,30,0.00,,,0.00,WUHU216HW,2013-03-10 21:58:00,
2013-03-10 18:01:00,67.9,35.3,29.90,SSE,147,9.4,12.8,30,0.00,,,0.00,WUHU216HW,2013-03-10 22:01:00,
2013-03-10 18:02:00,67.9,35.3,29.90,SSE,157,6.8,12.8,30,0.00,,,0.00,WUHU216HW,2013-03-10 22:02:00,
2013-03-10 18:03:00,67.9,35.3,29.90,South,173,4.3,9.8,30,0.00,,,0.00,WUHU216HW,2013-03-10 22:03:00,
2013-03-10 18:07:00,67.7,35.2,29.90,ESE,113,8.1,9.8,30,0.00,,,0.00,WUHU216HW,2013-03-10 22:07:00,
2013-03-10 18:08:00,67.5,35.0,29.90,SSW,203,9.8,9.8,30,0.00,,,0.00,WUHU216HW,2013-03-10 22:08:00,
2013-03-10 18:10:00,67.3,34.9,29.89,East,87,7.6,9.8,30,0.00,,,0.00,WUHU216HW,2013-03-10 22:10:00,
2013-03-10 18:13:00,67.3,34.9,29.89,SSE,158,8.9,9.8,30,0.00,,,0.00,WUHU216HW,2013-03-10 22:13:00,
2013-03-10 18:15:00,67.0,34.6,29.89,SE,135,10.7,10.7,30,0.00,,,0.00,WUHU216HW,2013-03-10 22:15:00,
2013-03-10 18:18:00,67.0,34.6,29.89,SSE,158,16.1,16.1,30,0.00,,,0.00,WUHU216HW,2013-03-10 22:18:00,
2013-03-10 18:20:00,66.6,34.3,29.89,SE,135,12.1,16.1,30,0.00,,,0.00,WUHU216HW,2013-03-10 22:20:00,
2013-03-10 18:23:00,66.6,34.3,29.89,South,180,9.8,16.1,30,0.00,,,0.00,WUHU216HW,2013-03-10 22:23:00,
2013-03-10 18:24:00,66.6,34.3,29.89,South,180,9.8,16.1,30,0.00,,,0.00,WUHU216HW,2013-03-10 22:24:00,
2013-03-10 18:25:00,66.6,34.3,29.89,SE,135,8.9,16.1,30,0.00,,,0.00,WUHU216HW,2013-03-10 22:25:00,
2013-03-10 18:28:00,66.6,34.3,29.89,SSE,156,8.1,14.1,30,0.00,,,0.00,WUHU216HW,2013-03-10 22:28:00,
2013-03-10 18:29:00,66.6,34.3,29.89,SSE,156,8.1,14.1,30,0.00,,,0.00,WUHU216HW,2013-03-10 22:29:00,
2013-03-10 18:30:00,66.6,34.3,29.89,SE,135,9.2,14.1,30,0.00,,,0.00,WUHU216HW,2013-03-10 22:30:00,
2013-03-10 18:33:00,66.2,34.0,29.89,South,180,11.4,14.1,30,0.00,,,0.00,WUHU216HW,2013-03-10 22:33:00,
2013-03-10 18:34:00,66.4,34.2,29.88,SSE,164,9.0,14.1,30,0.00,,,0.00,WUHU216HW,2013-03-10 22:34:00,
2013-03-10 18:36:00,66.4,34.2,29.89,SE,135,5.6,14.1,30,0.00,,,0.00,WUHU216HW,2013-03-10 22:36:00,
2013-03-10 18:39:00,66.4,34.2,29.88,SE,135,9.2,11.4,30,0.00,,,0.00,WUHU216HW,2013-03-10 22:39:00,
2013-03-10 18:41:00,66.4,34.2,29.88,SE,135,10.8,13.9,30,0.00,,,0.00,WUHU216HW,2013-03-10 22:41:00,
2013-03-10 18:44:00,66.6,34.3,29.88,ESE,113,11.8,16.8,30,0.00,,,0.00,WUHU216HW,2013-03-10 22:44:00,
2013-03-10 18:45:00,66.6,34.3,29.88,ESE,113,11.8,16.8,30,0.00,,,0.00,WUHU216HW,2013-03-10 22:45:00,
2013-03-10 18:46:00,66.6,34.3,29.88,East,90,9.6,16.8,30,0.00,,,0.00,WUHU216HW,2013-03-10 22:46:00,
2013-03-10 18:47:00,66.6,34.3,29.88,East,90,9.6,16.8,30,0.00,,,0.00,WUHU216HW,2013-03-10 22:47:00,
2013-03-10 18:49:00,66.8,34.5,29.88,SE,124,10.0,16.8,30,0.00,,,0.00,WUHU216HW,2013-03-10 22:49:00,
2013-03-10 18:50:00,66.8,34.5,29.88,SE,131,8.3,16.8,30,0.00,,,0.00,WUHU216HW,2013-03-10 22:50:00,
2013-03-10 18:51:00,66.8,34.5,29.88,East,90,9.8,16.8,30,0.00,,,0.00,WUHU216HW,2013-03-10 22:51:00,
2013-03-10 18:52:00,67.0,34.6,29.88,East,90,11.4,16.8,30,0.00,,,0.00,WUHU216HW,2013-03-10 22:52:00,
2013-03-10 18:55:00,66.8,34.5,29.88,ESE,113,9.8,14.8,30,0.00,,,0.00,WUHU216HW,2013-03-10 22:55:00,
2013-03-10 18:56:00,66.8,34.5,29.88,SSE,158,13.4,14.8,30,0.00,,,0.00,WUHU216HW,2013-03-10 22:56:00,
2013-03-10 18:57:00,66.8,34.5,29.88,SSE,158,13.4,14.8,30,0.00,,,0.00,WUHU216HW,2013-03-10 22:57:00,
2013-03-10 19:00:00,66.6,34.3,29.87,South,175,9.8,15.0,30,0.00,,,0.00,WUHU216HW,2013-03-10 23:00:00,
2013-03-10 19:02:00,66.6,34.3,29.88,East,90,10.3,15.0,30,0.00,,,0.00,WUHU216HW,2013-03-10 23:02:00,
2013-03-10 19:07:00,66.2,34.0,29.88,ESE,122,12.3,15.0,30,0.00,,,0.00,WUHU216HW,2013-03-10 23:07:00,
2013-03-10 19:08:00,66.2,34.0,29.88,SE,143,8.6,13.9,30,0.00,,,0.00,WUHU216HW,2013-03-10 23:08:00,
2013-03-10 19:13:00,65.9,34.4,29.87,SE,135,7.6,13.9,31,0.00,,,0.00,WUHU216HW,2013-03-10 23:13:00,
2013-03-10 19:14:00,65.7,33.6,29.87,SE,135,6.6,13.9,30,0.00,,,0.00,WUHU216HW,2013-03-10 23:14:00,
2013-03-10 19:18:00,65.2,33.0,29.88,ESE,118,8.8,13.2,30,0.00,,,0.00,WUHU216HW,2013-03-10 23:18:00,
2013-03-10 19:19:00,65.2,33.0,29.88,ESE,118,8.8,13.2,30,0.00,,,0.00,WUHU216HW,2013-03-10 23:19:00,
2013-03-10 19:20:00,65.2,33.0,29.87,South,179,6.2,13.2,30,0.00,,,0.00,WUHU216HW,2013-03-10 23:20:00,
2013-03-10 19:24:00,65.0,33.6,29.88,SSE,147,6.7,13.2,31,0.00,,,0.00,WUHU216HW,2013-03-10 23:24:00,
2013-03-10 19:25:00,64.8,33.5,29.87,SE,126,7.8,13.2,31,0.00,,,0.00,WUHU216HW,2013-03-10 23:25:00,
2013-03-10 19:26:00,64.8,33.5,29.87,SE,126,7.8,13.2,31,0.00,,,0.00,WUHU216HW,2013-03-10 23:26:00,
2013-03-10 19:29:00,64.6,33.3,29.87,SSW,203,6.0,11.2,31,0.00,,,0.00,WUHU216HW,2013-03-10 23:29:00,
2013-03-10 19:30:00,64.6,33.3,29.87,South,180,6.9,11.2,31,0.00,,,0.00,WUHU216HW,2013-03-10 23:30:00,
2013-03-10 19:31:00,64.4,33.1,29.87,SSE,156,5.4,11.2,31,0.00,,,0.00,WUHU216HW,2013-03-10 23:31:00,
2013-03-10 19:32:00,64.4,33.1,29.87,SE,135,5.4,11.2,31,0.00,,,0.00,WUHU216HW,2013-03-10 23:32:00,
2013-03-10 19:35:00,64.3,32.9,29.87,SSE,158,11.4,11.4,31,0.00,,,0.00,WUHU216HW,2013-03-10 23:35:00,
2013-03-10 19:37:00,64.1,33.5,29.87,ESE,113,9.8,11.4,32,0.00,,,0.00,WUHU216HW,2013-03-10 23:37:00,
2013-03-10 19:38:00,64.1,33.5,29.87,ESE,113,9.8,11.4,32,0.00,,,0.00,WUHU216HW,2013-03-10 23:38:00,
2013-03-10 19:40:00,64.1,33.5,29.87,SE,125,8.1,11.4,32,0.00,,,0.00,WUHU216HW,2013-03-10 23:40:00,
2013-03-10 19:42:00,64.1,33.5,29.87,SE,135,3.7,11.4,32,0.00,,,0.00,WUHU216HW,2013-03-10 23:42:00,
2013-03-10 19:43:00,64.1,33.5,29.87,SE,135,3.7,11.4,32,0.00,,,0.00,WUHU216HW,2013-03-10 23:43:00,
2013-03-10 19:45:00,63.7,33.2,29.87,SE,135,8.9,9.8,32,0.00,,,0.00,WUHU216HW,2013-03-10 23:45:00,
2013-03-10 19:48:00,63.7,33.2,29.87,SE,135,8.7,9.2,32,0.00,,,0.00,WUHU216HW,2013-03-10 23:48:00,
2013-03-10 19:52:00,63.7,33.9,29.87,SW,225,5.6,9.2,33,0.00,,,0.00,WUHU216HW,2013-03-10 23:52:00,
2013-03-10 19:53:00,63.5,33.8,29.87,SE,135,5.8,9.2,33,0.00,,,0.00,WUHU216HW,2013-03-10 23:53:00,
2013-03-10 19:54:00,63.5,33.8,29.87,SE,135,5.8,9.2,33,0.00,,,0.00,WUHU216HW,2013-03-10 23:54:00,
2013-03-10 19:58:00,63.2,33.4,29.87,SE,135,4.0,9.2,33,0.00,,,0.00,WUHU216HW,2013-03-10 23:58:00,
2013-03-10 19:59:00,63.2,33.4,29.87,SSW,203,6.9,9.2,33,0.00,,,0.00,WUHU216HW,2013-03-10 23:59:00,
2013-03-10 20:00:00,63.2,33.4,29.87,ESE,113,8.1,8.1,33,0.00,,,0.00,WUHU216HW,2013-03-11 00:00:00,
2013-03-10 20:03:00,63.0,33.3,29.87,SE,134,7.9,10.5,33,0.00,,,0.00,WUHU216HW,2013-03-11 00:03:00,
2013-03-10 20:04:00,63.0,33.3,29.87,SE,134,7.9,10.5,33,0.00,,,0.00,WUHU216HW,2013-03-11 00:04:00,
2013-03-10 20:05:00,63.0,33.3,29.87,South,180,5.1,10.5,33,0.00,,,0.00,WUHU216HW,2013-03-11 00:05:00,
2013-03-10 20:09:00,63.0,34.0,29.87,South,180,10.1,10.5,34,0.00,,,0.00,WUHU216HW,2013-03-11 00:09:00,
2013-03-10 20:10:00,63.0,34.0,29.87,South,180,10.1,10.5,34,0.00,,,0.00,WUHU216HW,2013-03-11 00:10:00,
2013-03-10 20:11:00,63.0,34.0,29.88,SE,146,10.0,10.5,34,0.00,,,0.00,WUHU216HW,2013-03-11 00:11:00,
2013-03-10 20:14:00,63.0,34.0,29.88,SE,135,10.5,10.5,34,0.00,,,0.00,WUHU216HW,2013-03-11 00:14:00,
2013-03-10 20:15:00,63.0,34.0,29.88,SE,144,9.1,10.5,34,0.00,,,0.00,WUHU216HW,2013-03-11 00:15:00,
2013-03-10 20:16:00,63.0,34.0,29.88,SE,144,9.1,10.5,34,0.00,,,0.00,WUHU216HW,2013-03-11 00:16:00,
2013-03-10 20:18:00,63.0,34.0,29.88,SE,135,7.4,10.5,34,0.00,,,0.00,WUHU216HW,2013-03-11 00:18:00,
2013-03-10 20:20:00,62.8,33.9,29.88,SSE,158,6.0,10.5,34,0.00,,,0.00,WUHU216HW,2013-03-11 00:20:00,
2013-03-10 20:21:00,62.8,33.9,29.88,SSE,158,6.0,10.5,34,0.00,,,0.00,WUHU216HW,2013-03-11 00:21:00,
2013-03-10 20:24:00,62.6,33.7,29.88,SE,128,4.9,9.6,34,0.00,,,0.00,WUHU216HW,2013-03-11 00:24:00,
2013-03-10 20:25:00,62.5,34.9,29.88,SSE,158,12.1,12.1,36,0.00,,,0.00,WUHU216HW,2013-03-11 00:25:00,
2013-03-10 20:27:00,62.5,34.9,29.88,South,174,8.3,12.1,36,0.00,,,0.00,WUHU216HW,2013-03-11 00:27:00,
2013-03-10 20:30:00,62.3,34.7,29.88,East,90,4.7,12.1,36,0.00,,,0.00,WUHU216HW,2013-03-11 00:30:00,
2013-03-10 20:32:00,62.3,34.7,29.88,SE,135,9.6,12.1,36,0.00,,,0.00,WUHU216HW,2013-03-11 00:32:00,
2013-03-10 20:36:00,62.3,34.7,29.88,South,180,7.4,12.8,36,0.00,,,0.00,WUHU216HW,2013-03-11 00:36:00,
2013-03-10 20:37:00,62.3,34.7,29.88,South,180,4.3,12.8,36,0.00,,,0.00,WUHU216HW,2013-03-11 00:37:00,
2013-03-10 20:38:00,62.3,34.7,29.88,South,180,4.3,12.8,36,0.00,,,0.00,WUHU216HW,2013-03-11 00:38:00,
2013-03-10 20:41:00,62.1,35.4,29.88,SE,124,9.6,12.8,37,0.00,,,0.00,WUHU216HW,2013-03-11 00:41:00,
2013-03-10 20:43:00,62.1,35.4,29.88,SE,135,9.2,12.8,37,0.00,,,0.00,WUHU216HW,2013-03-11 00:43:00,
2013-03-10 20:47:00,62.1,35.4,29.88,SE,135,7.8,12.1,37,0.00,,,0.00,WUHU216HW,2013-03-11 00:47:00,
2013-03-10 20:48:00,62.1,35.4,29.88,ESE,113,9.8,12.1,37,0.00,,,0.00,WUHU216HW,2013-03-11 00:48:00,
2013-03-10 20:49:00,62.1,35.4,29.88,ESE,113,9.8,12.1,37,0.00,,,0.00,WUHU216HW,2013-03-11 00:49:00,
2013-03-10 20:52:00,62.1,35.4,29.88,SE,127,10.3,13.4,37,0.00,,,0.00,WUHU216HW,2013-03-11 00:52:00,
2013-03-10 20:54:00,61.9,35.2,29.88,ESE,110,9.6,13.4,37,0.00,,,0.00,WUHU216HW,2013-03-11 00:54:00,
2013-03-10 20:55:00,61.9,35.2,29.88,SSE,162,7.3,13.4,37,0.00,,,0.00,WUHU216HW,2013-03-11 00:55:00,
2013-03-10 20:57:00,61.9,35.2,29.89,SE,135,6.9,13.4,37,0.00,,,0.00,WUHU216HW,2013-03-11 00:57:00,
2013-03-10 20:58:00,61.9,35.2,29.88,SE,144,5.2,13.4,37,0.00,,,0.00,WUHU216HW,2013-03-11 00:58:00,
2013-03-10 20:59:00,61.7,35.0,29.89,SSE,158,10.5,13.4,37,0.00,,,0.00,WUHU216HW,2013-03-11 00:59:00,
2013-03-10 21:00:00,61.7,35.0,29.89,ESE,113,12.5,13.4,37,0.00,,,0.00,WUHU216HW,2013-03-11 01:00:00,
2013-03-10 21:03:00,61.6,35.6,29.89,SE,135,10.5,12.5,38,0.00,,,0.00,WUHU216HW,2013-03-11 01:03:00,
2013-03-10 21:04:00,61.6,35.6,29.89,SE,135,10.1,12.5,38,0.00,,,0.00,WUHU216HW,2013-03-11 01:04:00,
2013-03-10 21:05:00,61.6,35.6,29.89,SE,135,8.7,12.5,38,0.00,,,0.00,WUHU216HW,2013-03-11 01:05:00,
2013-03-10 21:08:00,61.6,35.6,29.89,South,180,9.4,12.5,38,0.00,,,0.00,WUHU216HW,2013-03-11 01:08:00,
2013-03-10 21:09:00,61.6,35.6,29.88,SSE,158,10.5,12.5,38,0.00,,,0.00,WUHU216HW,2013-03-11 01:09:00,
2013-03-10 21:10:00,61.6,35.6,29.89,SSE,147,9.6,10.5,38,0.00,,,0.00,WUHU216HW,2013-03-11 01:10:00,
2013-03-10 21:11:00,61.6,35.6,29.88,SE,124,8.6,10.5,38,0.00,,,0.00,WUHU216HW,2013-03-11 01:11:00,
2013-03-10 21:13:00,61.6,35.6,29.88,ESE,104,9.1,14.3,38,0.00,,,0.00,WUHU216HW,2013-03-11 01:13:00,
2013-03-10 21:15:00,61.6,35.6,29.89,SE,132,6.1,14.3,38,0.00,,,0.00,WUHU216HW,2013-03-11 01:15:00,
2013-03-10 21:16:00,61.6,35.6,29.89,SE,132,6.1,14.3,38,0.00,,,0.00,WUHU216HW,2013-03-11 01:16:00,
2013-03-10 21:18:00,61.4,36.1,29.89,South,180,6.3,14.3,39,0.00,,,0.00,WUHU216HW,2013-03-11 01:18:00,
2013-03-10 21:21:00,61.4,36.1,29.89,SSE,158,8.9,14.3,39,0.00,,,0.00,WUHU216HW,2013-03-11 01:21:00,
2013-03-10 21:23:00,61.4,36.1,29.89,SSE,147,11.6,12.8,39,0.00,,,0.00,WUHU216HW,2013-03-11 01:23:00,
2013-03-10 21:24:00,61.2,36.7,29.89,SE,135,8.7,12.8,40,0.00,,,0.00,WUHU216HW,2013-03-11 01:24:00,
2013-03-10 21:27:00,61.4,36.8,29.88,SE,124,9.4,12.8,40,0.00,,,0.00,WUHU216HW,2013-03-11 01:27:00,
2013-03-10 21:28:00,61.4,36.8,29.89,SE,135,10.7,12.8,40,0.00,,,0.00,WUHU216HW,2013-03-11 01:28:00,
2013-03-10 21:29:00,61.4,36.8,29.88,SE,146,10.1,12.8,40,0.00,,,0.00,WUHU216HW,2013-03-11 01:29:00,
2013-03-10 21:30:00,61.4,36.8,29.88,SE,146,10.1,12.8,40,0.00,,,0.00,WUHU216HW,2013-03-11 01:30:00,
2013-03-10 21:33:00,61.4,36.8,29.88,SSW,203,8.5,13.9,40,0.00,,,0.00,WUHU216HW,2013-03-11 01:33:00,
2013-03-10 21:35:00,61.4,37.5,29.88,East,90,13.2,13.9,41,0.00,,,0.00,WUHU216HW,2013-03-11 01:35:00,
2013-03-10 21:39:00,61.4,37.5,29.88,SSW,203,9.6,13.9,41,0.00,,,0.00,WUHU216HW,2013-03-11 01:39:00,
2013-03-10 21:40:00,61.4,37.5,29.88,South,179,7.6,13.9,41,0.00,,,0.00,WUHU216HW,2013-03-11 01:40:00,
2013-03-10 21:44:00,61.2,37.3,29.88,SE,135,9.4,13.6,41,0.00,,,0.00,WUHU216HW,2013-03-11 01:44:00,
2013-03-10 21:45:00,61.2,37.8,29.89,SE,142,6.7,13.6,42,0.00,,,0.00,WUHU216HW,2013-03-11 01:45:00,
2013-03-10 21:46:00,61.2,37.8,29.89,SE,142,6.7,13.6,42,0.00,,,0.00,WUHU216HW,2013-03-11 01:46:00,
2013-03-10 21:47:00,61.2,37.8,29.89,ESE,113,8.3,9.6,42,0.00,,,0.00,WUHU216HW,2013-03-11 01:47:00,
2013-03-10 21:50:00,61.4,38.0,29.89,ESE,113,15.4,17.2,42,0.00,,,0.00,WUHU216HW,2013-03-11 01:50:00,
2013-03-10 21:51:00,61.4,38.0,29.89,ESE,113,15.4,17.2,42,0.00,,,0.00,WUHU216HW,2013-03-11 01:51:00,
2013-03-10 21:52:00,61.4,38.0,29.89,SE,131,13.2,17.2,42,0.00,,,0.00,WUHU216HW,2013-03-11 01:52:00,
2013-03-10 21:53:00,61.4,38.6,29.89,SSW,203,14.1,17.2,43,0.00,,,0.00,WUHU216HW,2013-03-11 01:53:00,
2013-03-10 21:55:00,61.4,38.6,29.89,SSE,158,9.8,17.2,43,0.00,,,0.00,WUHU216HW,2013-03-11 01:55:00,
2013-03-10 21:57:00,61.4,38.6,29.89,SSW,203,11.4,17.2,43,0.00,,,0.00,WUHU216HW,2013-03-11 01:57:00,
2013-03-10 21:59:00,61.2,38.4,29.89,SE,135,10.5,15.4,43,0.00,,,0.00,WUHU216HW,2013-03-11 01:59:00,
2013-03-10 22:00:00,61.2,38.4,29.89,SE,135,7.4,14.1,43,0.00,,,0.00,WUHU216HW,2013-03-11 02:00:00,
2013-03-10 22:02:00,61.2,38.4,29.89,SSE,160,9.9,14.1,43,0.00,,,0.00,WUHU216HW,2013-03-11 02:02:00,
2013-03-10 22:04:00,61.2,38.4,29.89,SE,135,8.1,11.4,43,0.00,,,0.00,WUHU216HW,2013-03-11 02:04:00,
2013-03-10 22:06:00,61.2,38.4,29.89,South,180,16.1,16.1,43,0.00,,,0.00,WUHU216HW,2013-03-11 02:06:00,
2013-03-10 22:07:00,61.2,38.4,29.89,South,189,13.3,16.1,43,0.00,,,0.00,WUHU216HW,2013-03-11 02:07:00,
2013-03-10 22:08:00,61.2,38.4,29.89,SSW,203,11.9,16.1,43,0.00,,,0.00,WUHU216HW,2013-03-11 02:08:00,
2013-03-10 22:10:00,61.2,38.4,29.89,SSE,158,11.4,16.1,43,0.00,,,0.00,WUHU216HW,2013-03-11 02:10:00,
2013-03-10 22:11:00,61.2,38.4,29.89,SSE,165,8.4,16.1,43,0.00,,,0.00,WUHU216HW,2013-03-11 02:11:00,
2013-03-10 22:12:00,61.2,38.4,29.89,South,180,9.4,16.1,43,0.00,,,0.00,WUHU216HW,2013-03-11 02:12:00,
2013-03-10 22:13:00,61.2,39.0,29.89,ESE,113,10.5,16.1,44,0.00,,,0.00,WUHU216HW,2013-03-11 02:13:00,
2013-03-10 22:15:00,61.0,38.8,29.89,SE,143,9.2,16.1,44,0.00,,,0.00,WUHU216HW,2013-03-11 02:15:00,
2013-03-10 22:16:00,61.0,38.8,29.89,ESE,113,10.3,12.1,44,0.00,,,0.00,WUHU216HW,2013-03-11 02:16:00,
2013-03-10 22:18:00,60.8,38.7,29.89,SE,135,10.5,12.1,44,0.00,,,0.00,WUHU216HW,2013-03-11 02:18:00,
2013-03-10 22:21:00,60.8,38.7,29.89,South,170,10.3,12.1,44,0.00,,,0.00,WUHU216HW,2013-03-11 02:21:00,
2013-03-10 22:23:00,60.8,39.2,29.89,SE,135,8.7,12.1,45,0.00,,,0.00,WUHU216HW,2013-03-11 02:23:00,
2013-03-10 22:27:00,60.8,39.2,29.89,South,180,10.1,13.9,45,0.00,,,0.00,WUHU216HW,2013-03-11 02:27:00,
2013-03-10 22:28:00,60.8,39.2,29.89,SSE,158,12.8,13.9,45,0.00,,,0.00,WUHU216HW,2013-03-11 02:28:00,
2013-03-10 22:29:00,60.8,39.2,29.89,SSE,158,12.8,13.9,45,0.00,,,0.00,WUHU216HW,2013-03-11 02:29:00,
2013-03-10 22:33:00,60.8,39.2,29.89,South,180,13.3,14.1,45,0.00,,,0.00,WUHU216HW,2013-03-11 02:33:00,
2013-03-10 22:34:00,60.8,39.2,29.89,South,180,9.4,14.1,45,0.00,,,0.00,WUHU216HW,2013-03-11 02:34:00,
2013-03-10 22:35:00,60.8,39.2,29.89,SE,135,12.6,15.0,45,0.00,,,0.00,WUHU216HW,2013-03-11 02:35:00,
2013-03-10 22:38:00,60.8,39.2,29.89,South,178,6.9,15.0,45,0.00,,,0.00,WUHU216HW,2013-03-11 02:38:00,
2013-03-10 22:39:00,60.7,39.1,29.89,South,180,8.5,15.0,45,0.00,,,0.00,WUHU216HW,2013-03-11 02:39:00,
2013-03-10 22:40:00,60.7,39.1,29.89,South,180,8.5,15.0,45,0.00,,,0.00,WUHU216HW,2013-03-11 02:40:00,
2013-03-10 22:41:00,60.7,39.7,29.89,SSE,158,16.8,16.8,46,0.00,,,0.00,WUHU216HW,2013-03-11 02:41:00,
2013-03-10 22:44:00,60.7,39.7,29.89,SSW,193,8.9,16.8,46,0.00,,,0.00,WUHU216HW,2013-03-11 02:44:00,
2013-03-10 22:45:00,60.7,39.7,29.89,SSW,193,8.9,16.8,46,0.00,,,0.00,WUHU216HW,2013-03-11 02:45:00,
2013-03-10 22:47:00,60.7,39.7,29.89,SSE,147,12.4,16.8,46,0.00,,,0.00,WUHU216HW,2013-03-11 02:47:00,
2013-03-10 22:50:00,60.7,39.7,29.89,South,172,8.9,16.8,46,0.00,,,0.00,WUHU216HW,2013-03-11 02:50:00,
2013-03-10 22:52:00,60.7,39.7,29.89,SW,225,10.7,14.1,46,0.00,,,0.00,WUHU216HW,2013-03-11 02:52:00,
2013-03-10 22:55:00,60.5,39.5,29.89,SE,135,5.4,11.4,46,0.00,,,0.00,WUHU216HW,2013-03-11 02:55:00,
2013-03-10 22:56:00,60.5,39.5,29.90,SSE,158,6.9,11.4,46,0.00,,,0.00,WUHU216HW,2013-03-11 02:56:00,
2013-03-10 22:57:00,60.5,40.1,29.89,SSE,158,12.5,12.5,47,0.00,,,0.00,WUHU216HW,2013-03-11 02:57:00,
2013-03-10 23:00:00,60.3,39.9,29.89,SE,136,6.8,12.8,47,0.00,,,0.00,WUHU216HW,2013-03-11 03:00:00,
2013-03-10 23:01:00,60.3,39.9,29.89,ENE,68,8.5,12.8,47,0.00,,,0.00,WUHU216HW,2013-03-11 03:01:00,
2013-03-10 23:02:00,60.3,39.9,29.89,ENE,68,8.5,12.8,47,0.00,,,0.00,WUHU216HW,2013-03-11 03:02:00,
2013-03-10 23:04:00,60.1,39.8,29.89,South,187,10.3,12.8,47,0.00,,,0.00,WUHU216HW,2013-03-11 03:04:00,
2013-03-10 23:07:00,60.1,40.3,29.89,SE,135,11.2,14.1,48,0.00,,,0.00,WUHU216HW,2013-03-11 03:07:00,
2013-03-10 23:08:00,60.1,40.3,29.89,SE,135,8.9,14.1,48,0.00,,,0.00,WUHU216HW,2013-03-11 03:08:00,
2013-03-10 23:09:00,60.1,40.3,29.89,SE,135,8.5,14.1,48,0.00,,,0.00,WUHU216HW,2013-03-11 03:09:00,
2013-03-10 23:12:00,60.1,40.3,29.89,SSE,167,10.0,14.1,48,0.00,,,0.00,WUHU216HW,2013-03-11 03:12:00,
2013-03-10 23:13:00,60.1,40.3,29.89,SSE,159,8.1,14.1,48,0.00,,,0.00,WUHU216HW,2013-03-11 03:13:00,
2013-03-10 23:14:00,60.1,40.3,29.89,SE,135,5.8,14.1,48,0.00,,,0.00,WUHU216HW,2013-03-11 03:14:00,
2013-03-10 23:18:00,60.1,40.3,29.89,South,183,11.2,14.1,48,0.00,,,0.00,WUHU216HW,2013-03-11 03:18:00,
2013-03-10 23:19:00,59.9,40.1,29.89,South,179,9.1,14.1,48,0.00,,,0.00,WUHU216HW,2013-03-11 03:19:00,
2013-03-10 23:21:00,59.9,40.1,29.89,SSE,158,7.8,12.8,48,0.00,,,0.00,WUHU216HW,2013-03-11 03:21:00,
2013-03-10 23:23:00,59.9,40.1,29.89,South,172,9.3,12.8,48,0.00,,,0.00,WUHU216HW,2013-03-11 03:23:00,
2013-03-10 23:24:00,59.9,40.1,29.89,South,172,9.3,12.8,48,0.00,,,0.00,WUHU216HW,2013-03-11 03:24:00,
2013-03-10 23:25:00,59.9,40.8,29.89,SSE,158,14.8,14.8,49,0.00,,,0.00,WUHU216HW,2013-03-11 03:25:00,
2013-03-10 23:27:00,59.9,40.8,29.89,SSE,150,5.7,14.8,49,0.00,,,0.00,WUHU216HW,2013-03-11 03:27:00,
2013-03-10 23:29:00,59.9,40.8,29.89,SE,135,11.2,14.8,49,0.00,,,0.00,WUHU216HW,2013-03-11 03:29:00,
2013-03-10 23:30:00,59.8,40.6,29.89,SE,135,8.4,14.8,49,0.00,,,0.00,WUHU216HW,2013-03-11 03:30:00,
2013-03-10 23:32:00,59.8,40.6,29.89,South,180,7.6,14.8,49,0.00,,,0.00,WUHU216HW,2013-03-11 03:32:00,
2013-03-10 23:34:00,59.8,40.6,29.89,SSW,194,8.3,14.8,49,0.00,,,0.00,WUHU216HW,2013-03-11 03:34:00,
2013-03-10 23:36:00,59.8,40.6,29.89,SSE,158,6.9,11.2,49,0.00,,,0.00,WUHU216HW,2013-03-11 03:36:00,
2013-03-10 23:38:00,59.8,40.6,29.89,ESE,113,5.4,8.9,49,0.00,,,0.00,WUHU216HW,2013-03-11 03:38:00,
2013-03-10 23:39:00,59.8,40.6,29.89,SSE,158,9.6,9.6,49,0.00,,,0.00,WUHU216HW,2013-03-11 03:39:00,
2013-03-10 23:40:00,59.6,40.4,29.89,SSE,158,8.1,9.6,49,0.00,,,0.00,WUHU216HW,2013-03-11 03:40:00,
2013-03-10 23:42:00,59.6,40.4,29.89,SE,135,11.4,11.4,49,0.00,,,0.00,WUHU216HW,2013-03-11 03:42:00,
2013-03-10 23:43:00,59.6,40.4,29.89,SSE,158,7.1,11.4,49,0.00,,,0.00,WUHU216HW,2013-03-11 03:43:00,
2013-03-10 23:45:00,59.6,40.4,29.89,SE,146,6.4,11.4,49,0.00,,,0.00,WUHU216HW,2013-03-11 03:45:00,
2013-03-10 23:48:00,59.4,40.2,29.89,South,190,6.6,11.4,49,0.00,,,0.00,WUHU216HW,2013-03-11 03:48:00,
2013-03-10 23:49:00,59.4,40.2,29.89,South,190,6.6,11.4,49,0.00,,,0.00,WUHU216HW,2013-03-11 03:49:00,
2013-03-10 23:50:00,59.4,40.9,29.89,SE,135,6.4,11.4,50,0.00,,,0.00,WUHU216HW,2013-03-11 03:50:00,
2013-03-10 23:54:00,59.4,40.9,29.89,ESE,113,8.3,8.3,50,0.00,,,0.00,WUHU216HW,2013-03-11 03:54:00,
2013-03-10 23:55:00,59.4,40.9,29.89,SSE,148,6.6,8.3,50,0.00,,,0.00,WUHU216HW,2013-03-11 03:55:00,
2013-03-10 23:56:00,59.4,40.9,29.89,South,180,11.0,11.0,50,0.00,,,0.00,WUHU216HW,2013-03-11 03:56:00,
2013-03-10 23:59:00,59.4,40.9,29.89,SE,135,6.4,11.0,50,0.00,,,0.00,WUHU216HW,2013-03-11 03:59:00,